W2GRK-15 Weather Reports


Display with metric or nautical units.
time (UTC)temp
F
wind
direction
speed
MPH
gust
MPH
rain 1hr
in
rain 24hr
in
rain mn
in
humidity
%
barometer
mb
20260906214524 83 88 0.0 1.0 0.00 0.00 0.00 49 1016.6
20260906214419 83 89 1.0 2.0 0.00 0.00 0.00 47 1016.6
20260906214331 83 91 2.0 3.0 0.00 0.00 0.00 46 1016.7
20260906214226 83 93 1.0 2.0 0.00 0.00 0.00 46 1016.6
20260906214142 83 91 3.0 3.0 0.00 0.00 0.00 47 1016.6
20260906214017 83 80 3.0 4.0 0.00 0.00 0.00 48 1016.3
20260906213929 83 101 1.0 2.0 0.00 0.00 0.00 49 1016.3
20260906213825 83 130 0.0 1.0 0.00 0.00 0.00 51 1016.5
20260906213721 83 130 0.0 1.0 0.00 0.00 0.00 48 1016.4
20260906213616 83 128 1.0 2.0 0.00 0.00 0.00 48 1016.5
20260906213527 83 81 2.0 3.0 0.00 0.00 0.00 47 1016.4
20260906213423 82 104 3.0 4.0 0.00 0.00 0.00 50 1016.4
20260906213318 82 69 0.0 1.0 0.00 0.00 0.00 52 1016.4
20260906213230 82 69 1.0 2.0 0.00 0.00 0.00 51 1016.6
20260906213145 82 78 1.0 2.0 0.00 0.00 0.00 52 1016.5
20260906213021 81 77 2.0 3.0 0.00 0.00 0.00 51 1016.4
20260906212916 81 85 1.0 1.0 0.00 0.00 0.00 51 1016.6
20260906212828 81 96 1.0 2.0 0.00 0.00 0.00 51 1016.5
20260906212723 81 114 2.0 3.0 0.00 0.00 0.00 51 1016.5
20260906212619 81 103 3.0 4.0 0.00 0.00 0.00 52 1016.5
20260906212530 81 74 1.0 3.0 0.00 0.00 0.00 53 1016.6
20260906212446 80 71 0.0 1.0 0.00 0.00 0.00 52 1016.6
20260906212401 80 79 2.0 3.0 0.00 0.00 0.00 55 1016.7
20260906212217 80 158 0.0 1.0 0.00 0.00 0.00 55 1016.3
20260906212128 80 158 0.0 1.0 0.00 0.00 0.00 54 1016.7
20260906212023 80 154 2.0 4.0 0.00 0.00 0.00 53 1016.5
20260906211919 80 160 2.0 3.0 0.00 0.00 0.00 54 1016.5
20260906211831 80 136 2.0 2.0 0.00 0.00 0.00 54 1016.3
20260906211727 79 132 2.0 3.0 0.00 0.00 0.00 54 1016.5
20260906211642 79 114 1.0 2.0 0.00 0.00 0.00 54 1016.6
20260906211517 79 97 2.0 3.0 0.00 0.00 0.00 55 1016.5
20260906211429 79 76 3.0 6.0 0.00 0.00 0.00 55 1016.5
20260906211325 79 88 3.0 4.0 0.00 0.00 0.00 54 1016.4
20260906211220 79 71 4.0 4.0 0.00 0.00 0.00 54 1016.6
20260906211116 79 82 3.0 4.0 0.00 0.00 0.00 55 1016.6
20260906211027 79 86 2.0 3.0 0.00 0.00 0.00 56 1016.5
20260906210923 78 113 1.0 2.0 0.00 0.00 0.00 55 1016.5
20260906210818 78 128 2.0 2.0 0.00 0.00 0.00 56 1016.2
20260906210810 78 136 2.0 4.0 0.00 0.00 0.00 56 1016.4
20260906210625 78 113 0.0 1.0 0.00 0.00 0.00 57 1016.3
20260906210601 78 113 1.0 1.0 0.00 0.00 0.00 56 1016.3
20260906210417 78 112 2.0 3.0 0.00 0.00 0.00 56 1016.7
20260906210328 77 101 1.0 3.0 0.00 0.00 0.00 56 1016.4
20260906210224 77 102 2.0 3.0 0.00 0.00 0.00 56 1016.4
20260906210139 77 96 1.0 1.0 0.00 0.00 0.00 56 1016.3
20260906210031 77 95 1.0 1.0 0.00 0.00 0.00 56 1016.4
20260906205926 77 90 2.0 2.0 0.00 0.00 0.00 56 1016.6
20260906205822 77 102 1.0 2.0 0.00 0.00 0.00 56 1016.6
20260906205718 77 112 1.0 2.0 0.00 0.00 0.00 56 1016.6
20260906205629 77 111 0.0 1.0 0.00 0.00 0.00 56 1016.5
20260906205525 76 111 0.0 1.0 0.00 0.00 0.00 57 1016.5
20260906205420 76 0.0 0.0 0.00 0.00 0.00 57 1016.5
20260906205336 76 111 1.0 2.0 0.00 0.00 0.00 57 1016.4
20260906205227 76 111 2.0 3.0 0.00 0.00 0.00 58 1016.5
20260906205123 76 104 2.0 2.0 0.00 0.00 0.00 57 1016.5
20260906205018 76 112 1.0 2.0 0.00 0.00 0.00 57 1016.5
20260906205010 76 118 2.0 2.0 0.00 0.00 0.00 57 1016.6
20260906204845 76 138 1.0 2.0 0.00 0.00 0.00 57 1016.3
20260906204721 76 130 2.0 2.0 0.00 0.00 0.00 57 1016.3
20260906204617 76 78 3.0 4.0 0.00 0.00 0.00 58 1016.3
20260906204528 76 72 2.0 2.0 0.00 0.00 0.00 57 1016.5
20260906204444 76 112 2.0 2.0 0.00 0.00 0.00 58 1016.4
20260906204319 76 114 2.0 3.0 0.00 0.00 0.00 59 1016.4
20260906204215 76 106 2.0 2.0 0.00 0.00 0.00 59 1016.4
20260906204127 76 84 2.0 4.0 0.00 0.00 0.00 59 1016.5
20260906204022 76 146 0.0 1.0 0.00 0.00 0.00 59 1016.5
20260906203958 76 147 1.0 2.0 0.00 0.00 0.00 59 1016.4
20260906203829 76 138 1.0 2.0 0.00 0.00 0.00 59 1016.4
20260906203725 76 129 1.0 2.0 0.00 0.00 0.00 59 1016.5
20260906203620 76 126 2.0 3.0 0.00 0.00 0.00 59 1016.5
20260906203536 76 127 1.0 2.0 0.00 0.00 0.00 59 1016.5
20260906203428 76 127 1.0 2.0 0.00 0.00 0.00 58 1016.5
20260906203323 76 127 1.0 2.0 0.00 0.00 0.00 58 1016.5
20260906203239 76 90 3.0 3.0 0.00 0.00 0.00 58 1016.5
20260906203131 76 95 2.0 3.0 0.00 0.00 0.00 58 1016.4
20260906203026 76 95 2.0 3.0 0.00 0.00 0.00 57 1016.5
20260906202922 77 80 4.0 6.0 0.00 0.00 0.00 58 1016.5
20260906202817 77 98 2.0 3.0 0.00 0.00 0.00 58 1016.4
20260906202749 77 103 2.0 3.0 0.00 0.00 0.00 58 1016.6
20260906202624 77 86 3.0 6.0 0.00 0.00 0.00 58 1016.5
20260906202540 77 82 3.0 6.0 0.00 0.00 0.00 58 1016.5
20260906202415 77 74 4.0 6.0 0.00 0.00 0.00 57 1016.4
20260906202327 77 92 1.0 3.0 0.00 0.00 0.00 57 1016.5
20260906202242 77 88 3.0 6.0 0.00 0.00 0.00 57 1016.5
20260906202117 78 90 3.0 4.0 0.00 0.00 0.00 56 1016.5
20260906202029 78 87 3.0 6.0 0.00 0.00 0.00 56 1016.4
20260906201925 78 91 3.0 4.0 0.00 0.00 0.00 55 1016.5
20260906201840 78 98 2.0 6.0 0.00 0.00 0.00 56 1016.6
20260906201716 78 101 1.0 3.0 0.00 0.00 0.00 56 1016.5
20260906201627 78 112 0.0 1.0 0.00 0.00 0.00 56 1016.5
20260906201522 78 112 0.0 1.0 0.00 0.00 0.00 56 1016.5
20260906201418 78 0.0 0.0 0.00 0.00 0.00 56 1016.6
20260906201330 78 112 1.0 1.0 0.00 0.00 0.00 55 1016.4
20260906201226 78 115 3.0 4.0 0.00 0.00 0.00 56 1016.4
20260906201141 78 73 0.0 1.0 0.00 0.00 0.00 56 1016.4
20260906201017 78 35 1.0 3.0 0.00 0.00 0.00 56 1016.2
20260906200929 78 103 1.0 2.0 0.00 0.00 0.00 56 1016.5
20260906200844 78 104 1.0 2.0 0.00 0.00 0.00 56 1016.5
20260906200720 78 104 0.0 1.0 0.00 0.00 0.00 56 1016.3
20260906200615 78 104 0.0 1.0 0.00 0.00 0.00 56 1016.6
20260906200527 78 104 1.0 2.0 0.00 0.00 0.00 56 1016.6
20260906200422 78 131 2.0 3.0 0.00 0.00 0.00 56 1016.6
20260906200318 78 88 1.0 2.0 0.00 0.00 0.00 56 1016.5
20260906200229 78 73 3.0 4.0 0.00 0.00 0.00 56 1016.4
20260906200125 78 115 3.0 4.0 0.00 0.00 0.00 56 1016.4
20260906200021 78 145 1.0 3.0 0.00 0.00 0.00 54 1016.4
20260906195916 78 289 0.0 1.0 0.00 0.00 0.00 55 1016.4
20260906195828 78 288 1.0 3.0 0.00 0.00 0.00 55 1016.5
20260906195743 78 78 2.0 3.0 0.00 0.00 0.00 55 1016.5
20260906195619 78 95 2.0 3.0 0.00 0.00 0.00 55 1016.5
20260906195530 78 81 3.0 4.0 0.00 0.00 0.00 55 1016.6
20260906195426 78 82 1.0 2.0 0.00 0.00 0.00 55 1016.6
20260906195341 78 103 2.0 4.0 0.00 0.00 0.00 54 1016.4
20260906195217 78 85 3.0 6.0 0.00 0.00 0.00 53 1016.2
20260906195149 78 91 1.0 2.0 0.00 0.00 0.00 51 1016.5
20260906195024 78 100 1.0 2.0 0.00 0.00 0.00 51 1016.5
20260906194920 78 113 2.0 3.0 0.00 0.00 0.00 50 1016.4
20260906194815 78 119 3.0 6.0 0.00 0.00 0.00 50 1016.5
20260906194727 78 111 2.0 3.0 0.00 0.00 0.00 52 1016.3
20260906194623 78 104 0.0 1.0 0.00 0.00 0.00 52 1016.3
20260906194518 78 104 0.0 1.0 0.00 0.00 0.00 52 1016.3
20260906194430 78 104 1.0 1.0 0.00 0.00 0.00 52 1016.5
20260906194325 78 59 1.0 4.0 0.00 0.00 0.00 52 1016.4
20260906194241 78 44 1.0 2.0 0.00 0.00 0.00 51 1016.4
20260906194137 78 103 2.0 3.0 0.00 0.00 0.00 53 1016.3
20260906194028 78 41 1.0 1.0 0.00 0.00 0.00 53 1016.3
20260906193923 78 40 0.0 1.0 0.00 0.00 0.00 52 1016.3
20260906193819 77 41 0.0 1.0 0.00 0.00 0.00 53 1016.3
20260906193731 77 41 1.0 1.0 0.00 0.00 0.00 53 1016.3
20260906193647 77 41 0.0 1.0 0.00 0.00 0.00 52 1016.3
20260906193542 77 30 1.0 2.0 0.00 0.00 0.00 52 1016.3
20260906193438 77 46 1.0 2.0 0.00 0.00 0.00 52 1016.3
20260906193329 77 102 1.0 2.0 0.00 0.00 0.00 51 1016.4
20260906193225 78 94 2.0 3.0 0.00 0.00 0.00 51 1016.4
20260906193120 78 88 2.0 2.0 0.00 0.00 0.00 50 1016.4
20260906193016 78 78 2.0 6.0 0.00 0.00 0.00 51 1016.4
20260906192928 78 75 3.0 4.0 0.00 0.00 0.00 50 1016.4
20260906192823 78 180 1.0 2.0 0.00 0.00 0.00 50 1016.5
20260906192719 78 283 2.0 3.0 0.00 0.00 0.00 48 1016.5
20260906192630 78 320 5.0 9.0 0.00 0.00 0.00 48 1016.4
20260906192526 78 306 3.0 6.0 0.00 0.00 0.00 49 1016.4
20260906192422 78 310 4.0 9.0 0.00 0.00 0.00 49 1016.5
20260906192317 78 313 1.0 4.0 0.00 0.00 0.00 48 1016.5
20260906192229 78 329 3.0 7.0 0.00 0.00 0.00 48 1016.3
20260906192144 79 282 4.0 6.0 0.00 0.00 0.00 48 1016.4
20260906192020 79 331 3.0 4.0 0.00 0.00 0.00 48 1016.4
20260906191936 79 302 3.0 9.0 0.00 0.00 0.00 48 1016.3
20260906191827 79 309 3.0 4.0 0.00 0.00 0.00 47 1016.2
20260906191723 79 261 4.0 6.0 0.00 0.00 0.00 47 1016.2
20260906191618 79 274 5.0 7.0 0.00 0.00 0.00 48 1016.2
20260906191530 79 279 2.0 2.0 0.00 0.00 0.00 48 1016.2
20260906191426 79 305 1.0 3.0 0.00 0.00 0.00 50 1016.3
20260906191341 79 349 1.0 2.0 0.00 0.00 0.00 49 1016.3
20260906191257 79 331 1.0 1.0 0.00 0.00 0.00 49 1016.3
20260906191128 79 0.0 0.0 0.00 0.00 0.00 49 1016.2
20260906191024 79 331 1.0 1.0 0.00 0.00 0.00 48 1016.3
20260906190939 79 331 0.0 1.0 0.00 0.00 0.00 48 1016.2
20260906190831 79 344 1.0 2.0 0.00 0.00 0.00 49 1016.3
20260906190747 78 12 1.0 2.0 0.00 0.00 0.00 49 1016.2
20260906190622 78 343 1.0 1.0 0.00 0.00 0.00 49 1016.2
20260906190518 78 342 2.0 3.0 0.00 0.00 0.00 49 1016.1
20260906190430 78 319 1.0 3.0 0.00 0.00 0.00 49 1016.4
20260906190325 78 282 2.0 3.0 0.00 0.00 0.00 49 1016.4
20260906190221 78 314 0.0 1.0 0.00 0.00 0.00 49 1016.3
20260906190116 78 313 1.0 2.0 0.00 0.00 0.00 49 1016.4
20260906190027 78 299 2.0 3.0 0.00 0.00 0.00 48 1016.2
20260906185943 78 316 0.0 1.0 0.00 0.00 0.00 47 1016.3
20260906185819 78 316 1.0 2.0 0.00 0.00 0.00 46 1016.3
20260906185730 78 308 3.0 7.0 0.00 0.00 0.00 47 1016.4
20260906185626 78 309 1.0 3.0 0.00 0.00 0.00 46 1016.2
20260906185522 78 331 2.0 4.0 0.00 0.00 0.00 47 1016.2
20260906185437 78 323 1.0 2.0 0.00 0.00 0.00 47 1016.2
20260906185329 78 335 2.0 4.0 0.00 0.00 0.00 46 1016.4
20260906185224 78 294 4.0 6.0 0.00 0.00 0.00 48 1016.4
20260906185120 78 314 3.0 6.0 0.00 0.00 0.00 49 1016.3
20260906185016 78 311 4.0 7.0 0.00 0.00 0.00 49 1016.2
20260906184927 77 248 2.0 3.0 0.00 0.00 0.00 50 1016.4
20260906184823 77 290 3.0 6.0 0.00 0.00 0.00 51 1016.3
20260906184738 77 302 4.0 4.0 0.00 0.00 0.00 52 1016.4
20260906184630 77 299 2.0 3.0 0.00 0.00 0.00 51 1016.2
20260906184525 77 297 1.0 2.0 0.00 0.00 0.00 52 1016.4
20260906184421 77 298 2.0 3.0 0.00 0.00 0.00 51 1016.4
20260906184317 77 303 3.0 6.0 0.00 0.00 0.00 52 1016.2
20260906184228 77 334 1.0 2.0 0.00 0.00 0.00 52 1016.2
20260906184124 77 332 1.0 3.0 0.00 0.00 0.00 51 1016.3
20260906184039 77 270 2.0 3.0 0.00 0.00 0.00 50 1016.3
20260906183915 77 244 2.0 4.0 0.00 0.00 0.00 50 1016.5
20260906183827 77 338 1.0 1.0 0.00 0.00 0.00 49 1016.5
20260906183742 77 265 2.0 4.0 0.00 0.00 0.00 48 1016.5
20260906183618 77 234 5.0 7.0 0.00 0.00 0.00 49 1016.3
20260906183530 77 247 3.0 7.0 0.00 0.00 0.00 49 1016.5
20260906183445 77 265 4.0 7.0 0.00 0.00 0.00 49 1016.5
20260906183321 77 309 3.0 6.0 0.00 0.00 0.00 49 1016.4
20260906183216 77 274 3.0 4.0 0.00 0.00 0.00 49 1016.4
20260906183148 77 293 4.0 7.0 0.00 0.00 0.00 51 1016.4
20260906183043 77 320 2.0 3.0 0.00 0.00 0.00 52 1016.3
20260906182919 77 331 3.0 4.0 0.00 0.00 0.00 52 1016.5
20260906182851 78 246 2.0 3.0 0.00 0.00 0.00 52 1016.6
20260906182726 78 283 3.0 6.0 0.00 0.00 0.00 52 1016.6
20260906182622 78 308 3.0 6.0 0.00 0.00 0.00 52 1016.6
20260906182517 78 300 2.0 3.0 0.00 0.00 0.00 51 1016.3
20260906182429 78 315 2.0 4.0 0.00 0.00 0.00 50 1016.5
20260906182324 78 314 3.0 4.0 0.00 0.00 0.00 51 1016.5
20260906182220 78 305 2.0 3.0 0.00 0.00 0.00 52 1016.4
20260906182136 78 287 0.0 1.0 0.00 0.00 0.00 51 1016.5
20260906182047 78 287 1.0 2.0 0.00 0.00 0.00 52 1016.5
20260906182023 78 300 1.0 3.0 0.00 0.00 0.00 52 1016.6
20260906181819 78 312 2.0 4.0 0.00 0.00 0.00 52 1016.4
20260906181730 78 43 1.0 1.0 0.00 0.00 0.00 52 1016.6
20260906181646 78 6 1.0 2.0 0.00 0.00 0.00 52 1016.5
20260906181541 78 292 1.0 1.0 0.00 0.00 0.00 52 1016.5
20260906181417 78 283 1.0 2.0 0.00 0.00 0.00 51 1016.4
20260906181328 78 311 1.0 1.0 0.00 0.00 0.00 51 1016.5
20260906181224 78 315 1.0 3.0 0.00 0.00 0.00 51 1016.6
20260906181120 78 320 1.0 2.0 0.00 0.00 0.00 51 1016.6
20260906181015 78 255 2.0 3.0 0.00 0.00 0.00 50 1016.4
20260906180927 79 323 2.0 3.0 0.00 0.00 0.00 51 1016.5
20260906180822 79 53 1.0 1.0 0.00 0.00 0.00 50 1016.5
20260906180718 79 25 2.0 6.0 0.00 0.00 0.00 49 1016.5
20260906180630 79 301 2.0 4.0 0.00 0.00 0.00 51 1016.7
20260906180525 79 318 2.0 6.0 0.00 0.00 0.00 52 1016.7
20260906180441 79 337 1.0 1.0 0.00 0.00 0.00 51 1016.5
20260906180316 79 336 1.0 1.0 0.00 0.00 0.00 52 1016.7
20260906180228 79 319 2.0 2.0 0.00 0.00 0.00 52 1016.5
20260906180143 79 356 1.0 2.0 0.00 0.00 0.00 52 1016.5
20260906180019 79 28 0.0 2.0 0.00 0.00 0.00 52 1016.5
20260906175930 79 110 1.0 2.0 0.00 0.00 0.00 51 1016.5
20260906175825 79 89 2.0 3.0 0.00 0.00 0.00 53 1016.4
20260906175721 79 32 0.0 1.0 0.00 0.00 0.00 54 1016.4
20260906175616 79 31 0.0 1.0 0.00 0.00 0.00 53 1016.5
20260906175528 78 32 1.0 1.0 0.00 0.00 0.00 53 1016.4
20260906175504 78 32 1.0 1.0 0.00 0.00 0.00 54 1016.4
20260906175319 78 30 1.0 2.0 0.00 0.00 0.00 53 1016.4
20260906175230 78 89 1.0 1.0 0.00 0.00 0.00 52 1016.3
20260906175126 78 91 2.0 4.0 0.00 0.00 0.00 51 1016.4
20260906175041 78 102 2.0 3.0 0.00 0.00 0.00 53 1016.6
20260906174917 78 18 1.0 2.0 0.00 0.00 0.00 55 1016.5
20260906174828 78 336 2.0 3.0 0.00 0.00 0.00 55 1016.5
20260906174744 78 312 0.0 1.0 0.00 0.00 0.00 54 1016.5
20260906174620 78 311 1.0 2.0 0.00 0.00 0.00 54 1016.4
20260906174515 78 311 1.0 2.0 0.00 0.00 0.00 54 1016.7
20260906174427 78 308 1.0 1.0 0.00 0.00 0.00 53 1016.5
20260906174322 78 306 1.0 2.0 0.00 0.00 0.00 53 1016.7
20260906174218 78 300 3.0 6.0 0.00 0.00 0.00 53 1016.6
20260906174149 78 302 4.0 6.0 0.00 0.00 0.00 52 1016.7
20260906174024 78 304 1.0 3.0 0.00 0.00 0.00 53 1016.7
20260906173920 78 315 1.0 2.0 0.00 0.00 0.00 53 1016.6
20260906173831 78 337 2.0 6.0 0.00 0.00 0.00 53 1016.6
20260906173726 78 77 0.0 1.0 0.00 0.00 0.00 52 1016.6
20260906173621 78 77 0.0 1.0 0.00 0.00 0.00 52 1016.6
20260906173517 78 54 1.0 2.0 0.00 0.00 0.00 53 1016.7
20260906173428 78 312 0.0 1.0 0.00 0.00 0.00 53 1016.7
20260906173324 78 309 1.0 2.0 0.00 0.00 0.00 52 1016.7
20260906173219 78 307 2.0 2.0 0.00 0.00 0.00 51 1016.8
20260906173115 78 296 4.0 7.0 0.00 0.00 0.00 51 1016.7
20260906173027 78 293 2.0 2.0 0.00 0.00 0.00 52 1016.8
20260906172922 78 327 1.0 2.0 0.00 0.00 0.00 53 1016.9
20260906172818 78 26 1.0 2.0 0.00 0.00 0.00 54 1016.9
20260906172730 78 29 1.0 2.0 0.00 0.00 0.00 54 1016.8
20260906172625 78 300 3.0 6.0 0.00 0.00 0.00 53 1016.6
20260906172521 78 263 3.0 4.0 0.00 0.00 0.00 52 1016.4
20260906172416 78 255 2.0 3.0 0.00 0.00 0.00 54 1016.7
20260906172328 78 307 2.0 4.0 0.00 0.00 0.00 52 1016.7
20260906172244 78 289 4.0 7.0 0.00 0.00 0.00 53 1016.7
20260906172119 78 348 0.0 1.0 0.00 0.00 0.00 52 1016.7
20260906172031 78 320 3.0 3.0 0.00 0.00 0.00 53 1016.7
20260906171926 78 308 2.0 6.0 0.00 0.00 0.00 54 1016.7
20260906171822 78 348 1.0 4.0 0.00 0.00 0.00 54 1016.7
20260906171717 78 65 1.0 2.0 0.00 0.00 0.00 52 1016.6
20260906171629 78 33 1.0 2.0 0.00 0.00 0.00 53 1016.8
20260906171525 78 299 4.0 8.0 0.00 0.00 0.00 52 1016.8
20260906171420 78 295 4.0 6.0 0.00 0.00 0.00 51 1016.8
20260906171316 78 308 3.0 4.0 0.00 0.00 0.00 52 1016.6
20260906171227 78 323 1.0 6.0 0.00 0.00 0.00 53 1016.8
20260906171123 78 317 2.0 6.0 0.00 0.00 0.00 53 1016.8
20260906171019 78 302 3.0 6.0 0.00 0.00 0.00 53 1016.7
20260906170930 78 306 2.0 4.0 0.00 0.00 0.00 54 1016.8
20260906170906 78 272 1.0 4.0 0.00 0.00 0.00 53 1016.8
20260906170721 78 272 0.0 2.0 0.00 0.00 0.00 53 1016.7
20260906170617 78 304 1.0 2.0 0.00 0.00 0.00 54 1016.6
20260906170529 78 252 1.0 2.0 0.00 0.00 0.00 54 1016.8
20260906170444 78 308 1.0 3.0 0.00 0.00 0.00 52 1016.9
20260906170319 78 302 3.0 4.0 0.00 0.00 0.00 53 1017.0
20260906170231 78 260 3.0 6.0 0.00 0.00 0.00 53 1016.9
20260906170127 78 282 5.0 8.0 0.00 0.00 0.00 54 1016.8
20260906170022 78 300 2.0 7.0 0.00 0.00 0.00 53 1016.8
20260906165918 78 287 2.0 2.0 0.00 0.00 0.00 54 1016.8
20260906165829 78 303 3.0 4.0 0.00 0.00 0.00 56 1017.0
20260906165725 78 348 1.0 3.0 0.00 0.00 0.00 56 1016.9
20260906165621 78 24 0.0 2.0 0.00 0.00 0.00 55 1016.9
20260906165536 78 44 1.0 2.0 0.00 0.00 0.00 55 1016.7
20260906165428 78 344 1.0 2.0 0.00 0.00 0.00 56 1016.9
20260906165323 78 309 1.0 1.0 0.00 0.00 0.00 55 1016.9
20260906165219 78 308 1.0 2.0 0.00 0.00 0.00 55 1016.7
20260906165130 78 295 1.0 2.0 0.00 0.00 0.00 55 1016.8
20260906165026 78 283 3.0 4.0 0.00 0.00 0.00 54 1016.8
20260906164921 78 308 0.0 1.0 0.00 0.00 0.00 53 1016.8
20260906164837 78 301 4.0 4.0 0.00 0.00 0.00 54 1016.9
20260906164729 78 294 3.0 4.0 0.00 0.00 0.00 54 1016.9
20260906164624 78 295 2.0 3.0 0.00 0.00 0.00 55 1016.8
20260906164520 78 293 1.0 3.0 0.00 0.00 0.00 54 1016.8
20260906164415 78 312 3.0 3.0 0.00 0.00 0.00 54 1017.0
20260906164327 78 330 3.0 7.0 0.00 0.00 0.00 54 1017.0
20260906164222 78 315 4.0 6.0 0.00 0.00 0.00 54 1016.9
20260906164118 78 324 4.0 4.0 0.00 0.00 0.00 55 1016.9
20260906164030 78 1 2.0 2.0 0.00 0.00 0.00 55 1016.8
20260906163925 77 56 1.0 2.0 0.00 0.00 0.00 55 1016.8
20260906163821 77 341 1.0 2.0 0.00 0.00 0.00 54 1016.8
20260906163716 77 87 2.0 4.0 0.00 0.00 0.00 56 1016.8
20260906163628 77 275 2.0 3.0 0.00 0.00 0.00 57 1017.0
20260906163523 77 73 1.0 1.0 0.00 0.00 0.00 56 1016.9
20260906163419 77 304 0.0 1.0 0.00 0.00 0.00 57 1016.8
20260906163331 77 0.0 0.0 0.00 0.00 0.00 56 1016.9
20260906163226 77 303 0.0 1.0 0.00 0.00 0.00 56 1017.0
20260906163121 77 298 1.0 2.0 0.00 0.00 0.00 55 1016.8
20260906163037 77 293 1.0 2.0 0.00 0.00 0.00 56 1016.9
20260906162929 77 321 1.0 2.0 0.00 0.00 0.00 57 1017.2
20260906162824 76 295 1.0 1.0 0.00 0.00 0.00 56 1016.9
20260906162720 76 291 1.0 2.0 0.00 0.00 0.00 55 1016.9
20260906162615 76 291 3.0 6.0 0.00 0.00 0.00 56 1017.0
20260906162527 76 291 2.0 4.0 0.00 0.00 0.00 58 1017.0
20260906162422 76 301 0.0 1.0 0.00 0.00 0.00 58 1017.0
20260906162318 76 300 1.0 2.0 0.00 0.00 0.00 58 1017.1
20260906162250 76 315 2.0 3.0 0.00 0.00 0.00 57 1017.0
20260906162145 76 323 1.0 2.0 0.00 0.00 0.00 57 1017.0
20260906162021 76 0.0 0.0 0.00 0.00 0.00 58 1017.0
20260906161916 76 0.0 0.0 0.00 0.00 0.00 58 1017.0
20260906161828 76 90 0.0 1.0 0.00 0.00 0.00 57 1017.1
20260906161744 76 91 0.0 2.0 0.00 0.00 0.00 57 1017.1
20260906161619 76 41 1.0 2.0 0.00 0.00 0.00 57 1017.1
20260906161531 76 306 1.0 2.0 0.00 0.00 0.00 56 1017.2
20260906161426 76 301 3.0 4.0 0.00 0.00 0.00 56 1017.2
20260906161342 76 300 3.0 6.0 0.00 0.00 0.00 56 1017.1
20260906161217 76 310 4.0 7.0 0.00 0.00 0.00 56 1017.0
20260906161129 76 276 2.0 3.0 0.00 0.00 0.00 56 1017.1
20260906161025 76 315 2.0 3.0 0.00 0.00 0.00 56 1017.1
20260906160920 76 333 3.0 6.0 0.00 0.00 0.00 55 1017.0
20260906160856 76 350 1.0 3.0 0.00 0.00 0.00 56 1017.3
20260906160727 76 297 2.0 2.0 0.00 0.00 0.00 56 1017.3
20260906160622 76 291 1.0 2.0 0.00 0.00 0.00 55 1017.2
20260906160517 76 296 2.0 6.0 0.00 0.00 0.00 55 1017.1
20260906160429 76 315 4.0 7.0 0.00 0.00 0.00 56 1017.1
20260906160325 76 301 4.0 6.0 0.00 0.00 0.00 59 1017.1
20260906160240 76 288 1.0 4.0 0.00 0.00 0.00 59 1017.1
20260906160136 76 303 2.0 3.0 0.00 0.00 0.00 58 1017.2
20260906160047 76 305 1.0 2.0 0.00 0.00 0.00 58 1017.2
20260906155923 76 36 0.0 1.0 0.00 0.00 0.00 58 1017.2
20260906155910 76 35 1.0 2.0 0.00 0.00 0.00 57 1017.3
20260906155645 76 314 2.0 3.0 0.00 0.00 0.00 57 1017.1
20260906155521 76 293 0.0 1.0 0.00 0.00 0.00 58 1017.1
20260906155416 76 304 0.0 1.0 0.00 0.00 0.00 58 1017.0
20260906155348 76 303 0.0 1.0 0.00 0.00 0.00 58 1017.1
20260906155223 76 295 1.0 2.0 0.00 0.00 0.00 58 1017.2
20260906155119 76 291 2.0 2.0 0.00 0.00 0.00 58 1017.2
20260906155030 76 318 1.0 1.0 0.00 0.00 0.00 57 1017.1
20260906154925 76 314 2.0 2.0 0.00 0.00 0.00 57 1017.1
20260906154821 76 301 1.0 2.0 0.00 0.00 0.00 57 1017.2
20260906154717 76 254 2.0 3.0 0.00 0.00 0.00 56 1017.2
20260906154628 76 246 3.0 4.0 0.00 0.00 0.00 55 1017.2
20260906154524 76 253 3.0 6.0 0.00 0.00 0.00 55 1017.1
20260906154440 77 259 3.0 4.0 0.00 0.00 0.00 55 1017.3
20260906154315 77 245 3.0 6.0 0.00 0.00 0.00 57 1017.2
20260906154227 77 244 2.0 4.0 0.00 0.00 0.00 58 1017.1
20260906154122 77 234 1.0 2.0 0.00 0.00 0.00 58 1017.3
20260906154018 77 270 1.0 2.0 0.00 0.00 0.00 58 1017.3
20260906153949 76 283 1.0 1.0 0.00 0.00 0.00 58 1017.3
20260906153825 76 282 0.0 1.0 0.00 0.00 0.00 58 1017.2
20260906153720 76 284 0.0 1.0 0.00 0.00 0.00 58 1017.4
20260906153615 76 292 1.0 2.0 0.00 0.00 0.00 58 1017.2
20260906153547 76 303 2.0 3.0 0.00 0.00 0.00 59 1017.4
20260906153422 76 143 1.0 2.0 0.00 0.00 0.00 57 1017.4
20260906153318 76 292 1.0 2.0 0.00 0.00 0.00 57 1017.2
20260906153230 76 302 1.0 2.0 0.00 0.00 0.00 57 1017.4
20260906153125 76 302 0.0 1.0 0.00 0.00 0.00 58 1017.2
20260906153021 76 301 0.0 1.0 0.00 0.00 0.00 58 1017.1
20260906152916 76 301 1.0 1.0 0.00 0.00 0.00 59 1017.3
20260906152828 76 301 1.0 2.0 0.00 0.00 0.00 58 1017.4
20260906152722 76 304 1.0 2.0 0.00 0.00 0.00 59 1017.3
20260906152618 76 302 2.0 3.0 0.00 0.00 0.00 58 1017.3
20260906152529 76 30 1.0 2.0 0.00 0.00 0.00 57 1017.4
20260906152425 76 131 1.0 2.0 0.00 0.00 0.00 57 1017.3
20260906152320 76 192 1.0 1.0 0.00 0.00 0.00 56 1017.3
20260906152216 77 191 1.0 1.0 0.00 0.00 0.00 56 1017.3
20260906152148 77 182 0.0 1.0 0.00 0.00 0.00 56 1017.3
20260906152023 77 184 1.0 2.0 0.00 0.00 0.00 56 1017.3
20260906151919 77 260 0.0 1.0 0.00 0.00 0.00 56 1017.3
20260906151830 77 261 1.0 1.0 0.00 0.00 0.00 55 1017.4
20260906151725 77 266 1.0 2.0 0.00 0.00 0.00 55 1017.4
20260906151621 77 289 2.0 2.0 0.00 0.00 0.00 56 1017.2
20260906151516 77 288 3.0 4.0 0.00 0.00 0.00 56 1017.1
20260906151428 77 307 2.0 3.0 0.00 0.00 0.00 57 1017.5
20260906151324 77 0.0 0.0 0.00 0.00 0.00 58 1017.2
20260906151219 77 340 0.0 1.0 0.00 0.00 0.00 57 1017.1
20260906151155 77 0.0 0.0 0.00 0.00 0.00 57 1017.3
20260906151027 77 339 1.0 1.0 0.00 0.00 0.00 56 1017.5
20260906150922 77 2 1.0 2.0 0.00 0.00 0.00 57 1017.3
20260906150838 77 261 2.0 3.0 0.00 0.00 0.00 57 1017.3
20260906150730 77 287 2.0 2.0 0.00 0.00 0.00 57 1017.2
20260906150625 77 296 1.0 3.0 0.00 0.00 0.00 59 1017.2
20260906150601 76 234 1.0 1.0 0.00 0.00 0.00 60 1017.4
20260906150416 76 229 0.0 1.0 0.00 0.00 0.00 61 1017.3
20260906150328 76 228 1.0 1.0 0.00 0.00 0.00 60 1017.4
20260906150223 76 229 0.0 1.0 0.00 0.00 0.00 60 1017.3
20260906150119 76 224 0.0 1.0 0.00 0.00 0.00 59 1017.3
20260906150030 76 222 1.0 2.0 0.00 0.00 0.00 58 1017.3
20260906145946 76 237 2.0 3.0 0.00 0.00 0.00 59 1017.4
20260906145821 76 266 1.0 2.0 0.00 0.00 0.00 59 1017.5
20260906145737 76 255 1.0 1.0 0.00 0.00 0.00 60 1017.3
20260906145628 76 255 0.0 1.0 0.00 0.00 0.00 60 1017.3
20260906145524 76 291 1.0 2.0 0.00 0.00 0.00 60 1017.3
20260906145420 75 287 1.0 3.0 0.00 0.00 0.00 61 1017.3
20260906145315 75 330 0.0 1.0 0.00 0.00 0.00 60 1017.4
20260906145247 75 0.0 0.0 0.00 0.00 0.00 60 1017.3
20260906145122 75 332 1.0 2.0 0.00 0.00 0.00 60 1017.3
20260906145018 75 297 2.0 3.0 0.00 0.00 0.00 60 1017.3
20260906144930 75 329 2.0 3.0 0.00 0.00 0.00 60 1017.4
20260906144845 76 287 2.0 4.0 0.00 0.00 0.00 60 1017.3
20260906144721 76 334 2.0 3.0 0.00 0.00 0.00 60 1017.3
20260906144616 76 317 2.0 4.0 0.00 0.00 0.00 59 1017.2
20260906144527 76 290 2.0 4.0 0.00 0.00 0.00 59 1017.3
20260906144423 76 272 2.0 4.0 0.00 0.00 0.00 59 1017.3
20260906144318 76 315 1.0 1.0 0.00 0.00 0.00 59 1017.2
20260906144230 76 317 1.0 2.0 0.00 0.00 0.00 58 1017.4
20260906144125 76 303 4.0 6.0 0.00 0.00 0.00 57 1017.4
20260906144021 76 306 2.0 3.0 0.00 0.00 0.00 57 1017.4
20260906143917 76 295 2.0 3.0 0.00 0.00 0.00 57 1017.2
20260906143828 76 303 2.0 4.0 0.00 0.00 0.00 57 1017.2
20260906143724 76 293 3.0 4.0 0.00 0.00 0.00 57 1017.3
20260906143619 76 306 4.0 8.0 0.00 0.00 0.00 56 1017.1
20260906143531 77 261 4.0 7.0 0.00 0.00 0.00 56 1017.1
20260906143427 77 257 5.0 7.0 0.00 0.00 0.00 57 1017.2
20260906143322 77 332 1.0 2.0 0.00 0.00 0.00 57 1017.4
20260906143218 77 285 3.0 3.0 0.00 0.00 0.00 57 1017.4
20260906143129 77 303 3.0 4.0 0.00 0.00 0.00 58 1017.1
20260906143045 77 233 2.0 4.0 0.00 0.00 0.00 58 1017.3
20260906142921 77 312 2.0 3.0 0.00 0.00 0.00 57 1017.3
20260906142836 77 337 2.0 3.0 0.00 0.00 0.00 58 1017.4
20260906142728 77 315 2.0 3.0 0.00 0.00 0.00 58 1017.4
20260906142623 77 306 3.0 4.0 0.00 0.00 0.00 57 1017.3
20260906142539 77 310 5.0 8.0 0.00 0.00 0.00 57 1017.3
20260906142430 77 259 2.0 4.0 0.00 0.00 0.00 59 1017.3
20260906142346 77 295 2.0 3.0 0.00 0.00 0.00 59 1017.2
20260906142221 77 297 2.0 4.0 0.00 0.00 0.00 59 1017.3
20260906142117 77 281 2.0 2.0 0.00 0.00 0.00 58 1017.2
20260906142028 77 289 2.0 3.0 0.00 0.00 0.00 57 1017.2
20260906141924 78 262 4.0 7.0 0.00 0.00 0.00 57 1017.1
20260906141819 78 295 2.0 2.0 0.00 0.00 0.00 58 1017.2
20260906141715 78 296 4.0 7.0 0.00 0.00 0.00 58 1017.0
20260906141627 78 300 3.0 6.0 0.00 0.00 0.00 58 1017.1
20260906141522 78 276 2.0 3.0 0.00 0.00 0.00 58 1017.2
20260906141418 78 240 2.0 3.0 0.00 0.00 0.00 58 1017.2
20260906141330 78 247 3.0 6.0 0.00 0.00 0.00 57 1017.1
20260906141225 78 235 4.0 6.0 0.00 0.00 0.00 58 1017.0
20260906141120 78 262 4.0 6.0 0.00 0.00 0.00 58 1017.0
20260906141016 78 296 2.0 3.0 0.00 0.00 0.00 59 1017.0
20260906140948 78 250 2.0 2.0 0.00 0.00 0.00 59 1017.0
20260906140823 78 304 2.0 3.0 0.00 0.00 0.00 61 1017.2
20260906140719 77 305 2.0 3.0 0.00 0.00 0.00 60 1017.2
20260906140631 77 316 4.0 6.0 0.00 0.00 0.00 59 1017.0
20260906140606 77 237 3.0 4.0 0.00 0.00 0.00 59 1017.2
20260906140421 78 268 1.0 3.0 0.00 0.00 0.00 59 1017.1
20260906140317 78 316 1.0 1.0 0.00 0.00 0.00 59 1017.2
20260906140228 78 316 1.0 1.0 0.00 0.00 0.00 59 1017.3
20260906140124 78 312 1.0 2.0 0.00 0.00 0.00 59 1017.1
20260906140020 78 309 1.0 2.0 0.00 0.00 0.00 58 1017.0
20260906135915 78 293 3.0 4.0 0.00 0.00 0.00 59 1017.1
20260906135827 78 295 1.0 2.0 0.00 0.00 0.00 60 1017.1
20260906135722 78 334 0.0 1.0 0.00 0.00 0.00 60 1017.1
20260906135618 77 334 0.0 2.0 0.00 0.00 0.00 60 1017.0
20260906135530 77 324 1.0 3.0 0.00 0.00 0.00 61 1017.0
20260906135425 77 319 0.0 1.0 0.00 0.00 0.00 59 1017.0
20260906135321 77 320 0.0 2.0 0.00 0.00 0.00 60 1017.0
20260906135216 77 320 1.0 2.0 0.00 0.00 0.00 59 1017.1
20260906135148 77 319 1.0 2.0 0.00 0.00 0.00 60 1017.1
20260906135023 77 0.0 0.0 0.00 0.00 0.00 60 1017.1
20260906134919 77 0.0 0.0 0.00 0.00 0.00 59 1017.1
20260906134831 78 317 0.0 1.0 0.00 0.00 0.00 59 1017.0
20260906134726 78 317 1.0 1.0 0.00 0.00 0.00 58 1017.1
20260906134622 78 317 0.0 1.0 0.00 0.00 0.00 59 1017.2
20260906134517 79 0.0 0.0 0.00 0.00 0.00 59 1016.9
20260906134429 79 0.0 0.0 0.00 0.00 0.00 59 1017.2
20260906134325 79 0.0 0.0 0.00 0.00 0.00 58 1017.0
20260906134240 79 317 1.0 1.0 0.00 0.00 0.00 58 1017.2
20260906134116 79 316 1.0 2.0 0.00 0.00 0.00 58 1016.8
20260906134028 79 316 1.0 1.0 0.00 0.00 0.00 58 1017.1
20260906133923 79 316 0.0 1.0 0.00 0.00 0.00 58 1017.2
20260906133819 79 0.0 0.0 0.00 0.00 0.00 58 1017.2
20260906133730 79 318 0.0 1.0 0.00 0.00 0.00 59 1017.0
20260906133645 79 317 1.0 1.0 0.00 0.00 0.00 57 1017.0
20260906133521 79 0.0 0.0 0.00 0.00 0.00 58 1017.0
20260906133417 79 322 0.0 1.0 0.00 0.00 0.00 58 1017.1
20260906133328 79 311 1.0 2.0 0.00 0.00 0.00 58 1017.1
20260906133224 79 307 2.0 2.0 0.00 0.00 0.00 57 1017.1
20260906133139 79 297 3.0 4.0 0.00 0.00 0.00 58 1017.0
20260906133031 79 317 2.0 4.0 0.00 0.00 0.00 59 1017.0
20260906132926 79 300 1.0 2.0 0.00 0.00 0.00 60 1017.1
20260906132822 78 304 1.0 3.0 0.00 0.00 0.00 59 1017.1
20260906132737 78 273 1.0 2.0 0.00 0.00 0.00 58 1017.0
20260906132629 78 280 1.0 2.0 0.00 0.00 0.00 58 1017.1
20260906132524 78 257 2.0 2.0 0.00 0.00 0.00 58 1017.1
20260906132420 78 307 2.0 2.0 0.00 0.00 0.00 58 1016.8
20260906132315 78 305 2.0 3.0 0.00 0.00 0.00 57 1017.0
20260906132227 79 283 2.0 3.0 0.00 0.00 0.00 56 1017.1
20260906132123 79 246 3.0 3.0 0.00 0.00 0.00 56 1017.1
20260906132018 79 229 2.0 3.0 0.00 0.00 0.00 56 1017.0
20260906131950 79 295 0.0 1.0 0.00 0.00 0.00 56 1017.1
20260906131825 79 295 1.0 2.0 0.00 0.00 0.00 58 1017.1
20260906131721 80 296 2.0 2.0 0.00 0.00 0.00 57 1016.9
20260906131656 80 331 1.0 2.0 0.00 0.00 0.00 58 1016.8
20260906131528 80 24 1.0 2.0 0.00 0.00 0.00 58 1017.1
20260906131423 79 83 1.0 2.0 0.00 0.00 0.00 59 1017.1
20260906131319 79 82 0.0 1.0 0.00 0.00 0.00 59 1017.0
20260906131231 79 91 1.0 2.0 0.00 0.00 0.00 60 1016.8
20260906131126 79 234 1.0 1.0 0.00 0.00 0.00 60 1016.9
20260906131022 79 241 0.0 1.0 0.00 0.00 0.00 61 1016.9
20260906130917 78 242 1.0 1.0 0.00 0.00 0.00 61 1016.8
20260906130829 78 0.0 0.0 0.00 0.00 0.00 60 1017.0
20260906130724 78 242 0.0 1.0 0.00 0.00 0.00 60 1016.8
20260906130620 78 242 1.0 2.0 0.00 0.00 0.00 58 1017.0
20260906130516 78 278 3.0 4.0 0.00 0.00 0.00 58 1016.8
20260906130427 78 297 3.0 4.0 0.00 0.00 0.00 58 1017.0
20260906130322 78 304 3.0 4.0 0.00 0.00 0.00 58 1017.1
20260906130238 78 291 4.0 6.0 0.00 0.00 0.00 60 1016.9
20260906130130 78 330 2.0 4.0 0.00 0.00 0.00 59 1016.8
20260906130025 78 322 2.0 3.0 0.00 0.00 0.00 59 1016.8
20260906125921 78 302 2.0 3.0 0.00 0.00 0.00 62 1016.7
20260906125816 78 319 0.0 1.0 0.00 0.00 0.00 63 1017.0
20260906125728 78 312 2.0 3.0 0.00 0.00 0.00 61 1016.9
20260906125644 77 306 2.0 4.0 0.00 0.00 0.00 63 1016.9
20260906125519 77 308 1.0 1.0 0.00 0.00 0.00 64 1016.8
20260906125431 77 309 0.0 1.0 0.00 0.00 0.00 64 1016.8
20260906125326 77 309 1.0 1.0 0.00 0.00 0.00 65 1016.7
20260906125222 76 308 1.0 1.0 0.00 0.00 0.00 66 1016.7
20260906125117 76 309 0.0 1.0 0.00 0.00 0.00 67 1016.7
20260906125029 76 309 1.0 2.0 0.00 0.00 0.00 66 1016.9
20260906124924 75 308 0.0 1.0 0.00 0.00 0.00 66 1016.9
20260906124820 75 307 2.0 3.0 0.00 0.00 0.00 66 1016.7
20260906124715 75 298 0.0 2.0 0.00 0.00 0.00 65 1016.8
20260906124627 75 236 1.0 2.0 0.00 0.00 0.00 65 1016.8
20260906124523 75 297 3.0 6.0 0.00 0.00 0.00 65 1016.9
20260906124418 74 294 4.0 6.0 0.00 0.00 0.00 66 1016.7
20260906124330 74 301 2.0 3.0 0.00 0.00 0.00 66 1016.7
20260906124225 74 273 3.0 4.0 0.00 0.00 0.00 66 1016.9
20260906124121 74 272 2.0 4.0 0.00 0.00 0.00 67 1016.9
20260906124017 74 300 2.0 3.0 0.00 0.00 0.00 67 1016.7
20260906123928 74 313 2.0 4.0 0.00 0.00 0.00 66 1016.6
20260906123823 74 298 4.0 8.0 0.00 0.00 0.00 66 1016.7
20260906123719 74 295 5.0 9.0 0.00 0.00 0.00 66 1016.7
20260906123631 74 279 1.0 3.0 0.00 0.00 0.00 68 1016.6
20260906123526 73 325 2.0 3.0 0.00 0.00 0.00 67 1016.6
20260906123421 73 324 3.0 4.0 0.00 0.00 0.00 67 1016.6
20260906123337 73 255 2.0 3.0 0.00 0.00 0.00 67 1016.7
20260906123228 73 277 3.0 4.0 0.00 0.00 0.00 67 1016.8
20260906123144 73 305 4.0 4.0 0.00 0.00 0.00 66 1016.7
20260906123020 73 298 4.0 6.0 0.00 0.00 0.00 67 1016.7
20260906122915 73 291 3.0 7.0 0.00 0.00 0.00 67 1016.7
20260906122827 73 272 3.0 6.0 0.00 0.00 0.00 68 1016.6
20260906122722 73 284 3.0 6.0 0.00 0.00 0.00 68 1016.6
20260906122618 73 293 1.0 2.0 0.00 0.00 0.00 69 1016.6
20260906122550 73 244 3.0 3.0 0.00 0.00 0.00 69 1016.6
20260906122425 73 310 3.0 4.0 0.00 0.00 0.00 69 1016.7
20260906122321 73 313 3.0 4.0 0.00 0.00 0.00 69 1016.7
20260906122217 73 263 2.0 3.0 0.00 0.00 0.00 68 1016.5
20260906122128 73 293 3.0 6.0 0.00 0.00 0.00 69 1016.6
20260906122024 72 295 3.0 6.0 0.00 0.00 0.00 70 1016.6
20260906121919 72 320 2.0 3.0 0.00 0.00 0.00 70 1016.7
20260906121815 72 317 2.0 4.0 0.00 0.00 0.00 73 1016.5
20260906121727 71 325 1.0 2.0 0.00 0.00 0.00 75 1016.5
20260906121622 71 0.0 0.0 0.00 0.00 0.00 76 1016.5
20260906121538 71 0.0 0.0 0.00 0.00 0.00 76 1016.4
20260906121429 70 306 0.0 1.0 0.00 0.00 0.00 75 1016.6
20260906121325 70 306 0.0 1.0 0.00 0.00 0.00 75 1016.6
20260906121221 70 314 0.0 1.0 0.00 0.00 0.00 76 1016.6
20260906121156 70 314 0.0 1.0 0.00 0.00 0.00 76 1016.6
20260906121028 69 314 0.0 1.0 0.00 0.00 0.00 77 1016.6
20260906120923 69 314 0.0 1.0 0.00 0.00 0.00 78 1016.7
20260906120819 69 0.0 0.0 0.00 0.00 0.00 79 1016.7
20260906120731 68 314 0.0 1.0 0.00 0.00 0.00 78 1016.6
20260906120625 68 314 1.0 2.0 0.00 0.00 0.00 79 1016.6
20260906120521 68 0.0 0.0 0.00 0.00 0.00 78 1016.3
20260906120417 67 320 1.0 1.0 0.00 0.00 0.00 79 1016.4
20260906120328 67 326 2.0 2.0 0.00 0.00 0.00 80 1016.3
20260906120224 67 338 2.0 4.0 0.00 0.00 0.00 80 1016.4
20260906120119 66 297 0.0 1.0 0.00 0.00 0.00 81 1016.6
20260906120031 66 296 1.0 2.0 0.00 0.00 0.00 81 1016.4
20260906115926 66 303 2.0 3.0 0.00 0.00 0.00 81 1016.3
20260906115822 66 277 2.0 3.0 0.00 0.00 0.00 82 1016.4
20260906115717 65 301 2.0 4.0 0.00 0.00 0.00 82 1016.3
20260906115629 65 293 2.0 4.0 0.00 0.00 0.00 82 1016.5
20260906115545 65 318 0.0 1.0 0.00 0.00 0.00 82 1016.3
20260906115420 65 319 1.0 1.0 0.00 0.00 0.00 82 1016.3
20260906115316 65 309 3.0 4.0 0.00 0.00 0.00 82 1016.3
20260906115227 65 299 4.0 7.0 0.00 0.00 0.00 82 1016.4
20260906115123 65 321 3.0 4.0 0.00 0.00 0.00 83 1016.4
20260906115038 65 327 1.0 4.0 0.00 0.00 0.00 83 1016.4
20260906114930 65 344 2.0 6.0 0.00 0.00 0.00 83 1016.4
20260906114825 65 310 1.0 2.0 0.00 0.00 0.00 83 1016.4
20260906114721 64 282 1.0 2.0 0.00 0.00 0.00 83 1016.4
20260906114617 64 276 0.0 1.0 0.00 0.00 0.00 83 1016.2
20260906114528 64 283 2.0 3.0 0.00 0.00 0.00 84 1016.2
20260906114424 64 277 2.0 3.0 0.00 0.00 0.00 84 1016.4
20260906114319 64 329 1.0 1.0 0.00 0.00 0.00 83 1016.4
20260906114231 64 334 1.0 1.0 0.00 0.00 0.00 83 1016.3
20260906114127 64 335 1.0 2.0 0.00 0.00 0.00 83 1016.4
20260906114042 64 0.0 0.0 0.00 0.00 0.00 84 1016.4
20260906113918 64 0.0 0.0 0.00 0.00 0.00 84 1016.3
20260906113829 64 310 2.0 4.0 0.00 0.00 0.00 84 1016.3
20260906113725 64 310 2.0 4.0 0.00 0.00 0.00 84 1016.3
20260906113640 64 321 4.0 6.0 0.00 0.00 0.00 84 1016.2
20260906113556 64 310 4.0 6.0 0.00 0.00 0.00 85 1016.3
20260906113447 64 312 2.0 2.0 0.00 0.00 0.00 84 1016.1
20260906113323 64 319 2.0 3.0 0.00 0.00 0.00 84 1016.1
20260906113219 64 301 0.0 1.0 0.00 0.00 0.00 84 1016.1
20260906113130 64 302 0.0 1.0 0.00 0.00 0.00 84 1016.2
20260906113026 64 301 0.0 1.0 0.00 0.00 0.00 85 1016.2
20260906112921 64 301 1.0 1.0 0.00 0.00 0.00 85 1016.0
20260906112817 63 302 1.0 2.0 0.00 0.00 0.00 85 1016.0
20260906112728 63 302 1.0 2.0 0.00 0.00 0.00 85 1016.2
20260906112644 63 309 1.0 2.0 0.00 0.00 0.00 86 1016.0
20260906112520 63 322 1.0 1.0 0.00 0.00 0.00 85 1016.0
20260906112415 63 322 1.0 1.0 0.00 0.00 0.00 85 1016.1
20260906112327 63 322 1.0 1.0 0.00 0.00 0.00 85 1016.0
20260906112222 63 322 1.0 1.0 0.00 0.00 0.00 86 1016.1
20260906112118 63 322 1.0 1.0 0.00 0.00 0.00 85 1015.8
20260906112029 63 322 0.0 1.0 0.00 0.00 0.00 85 1016.1
20260906111925 63 322 1.0 1.0 0.00 0.00 0.00 85 1016.2
20260906111821 63 320 1.0 2.0 0.00 0.00 0.00 85 1016.0
20260906111716 63 316 1.0 2.0 0.00 0.00 0.00 85 1016.0
20260906111648 63 317 1.0 1.0 0.00 0.00 0.00 85 1016.0
20260906111524 63 317 1.0 1.0 0.00 0.00 0.00 85 1016.1
20260906111419 63 0.0 0.0 0.00 0.00 0.00 84 1015.9
20260906111330 63 0.0 0.0 0.00 0.00 0.00 85 1015.9
20260906111226 63 317 1.0 1.0 0.00 0.00 0.00 85 1015.9
20260906111122 63 317 0.0 1.0 0.00 0.00 0.00 85 1016.0
20260906111017 63 318 1.0 2.0 0.00 0.00 0.00 85 1016.0
20260906110929 62 335 0.0 1.0 0.00 0.00 0.00 85 1015.9
20260906110824 62 0.0 0.0 0.00 0.00 0.00 85 1015.9
20260906110740 62 0.0 0.0 0.00 0.00 0.00 85 1015.9
20260906110615 62 0.0 0.0 0.00 0.00 0.00 85 1015.8
20260906110527 62 335 1.0 2.0 0.00 0.00 0.00 85 1015.9
20260906110423 62 336 1.0 2.0 0.00 0.00 0.00 84 1015.9
20260906110318 62 333 1.0 2.0 0.00 0.00 0.00 84 1015.8
20260906110250 62 0.0 0.0 0.00 0.00 0.00 85 1015.7
20260906110125 62 0.0 0.0 0.00 0.00 0.00 84 1015.8
20260906110041 62 0.0 0.0 0.00 0.00 0.00 83 1015.7
20260906105937 62 0.0 0.0 0.00 0.00 0.00 83 1015.5
20260906105828 62 0.0 0.0 0.00 0.00 0.00 83 1015.8
20260906105724 62 0.0 0.0 0.00 0.00 0.00 83 1015.7
20260906105619 62 0.0 0.0 0.00 0.00 0.00 83 1015.7
20260906105531 62 0.0 0.0 0.00 0.00 0.00 83 1015.6
20260906105426 62 0.0 0.0 0.00 0.00 0.00 84 1015.6
20260906105322 62 330 0.0 1.0 0.00 0.00 0.00 84 1015.6
20260906105218 62 331 0.0 1.0 0.00 0.00 0.00 83 1015.6
20260906105129 62 0.0 0.0 0.00 0.00 0.00 84 1015.9
20260906105024 62 0.0 0.0 0.00 0.00 0.00 85 1015.7
20260906104920 62 331 0.0 1.0 0.00 0.00 0.00 84 1015.5
20260906104815 62 330 0.0 1.0 0.00 0.00 0.00 81 1015.6
20260906104727 62 329 0.0 1.0 0.00 0.00 0.00 82 1015.6
20260906104623 62 329 0.0 1.0 0.00 0.00 0.00 82 1015.6
20260906104518 62 0.0 0.0 0.00 0.00 0.00 82 1015.7
20260906104450 62 0.0 0.0 0.00 0.00 0.00 82 1015.7
20260906104325 62 0.0 0.0 0.00 0.00 0.00 82 1015.6
20260906104221 62 0.0 0.0 0.00 0.00 0.00 82 1015.5
20260906104116 62 0.0 0.0 0.00 0.00 0.00 82 1015.5
20260906104028 62 0.0 0.0 0.00 0.00 0.00 82 1015.5
20260906103924 62 0.0 0.0 0.00 0.00 0.00 82 1015.5
20260906103819 62 0.0 0.0 0.00 0.00 0.00 82 1015.4
20260906103751 62 0.0 0.0 0.00 0.00 0.00 82 1015.4
20260906103626 62 0.0 0.0 0.00 0.00 0.00 82 1015.5
20260906103522 62 0.0 0.0 0.00 0.00 0.00 82 1015.3
20260906103418 62 0.0 0.0 0.00 0.00 0.00 82 1015.3
20260906103329 62 0.0 0.0 0.00 0.00 0.00 82 1015.6
20260906103225 63 0.0 0.0 0.00 0.00 0.00 82 1015.4
20260906103120 63 0.0 0.0 0.00 0.00 0.00 83 1015.4
20260906103016 63 0.0 0.0 0.00 0.00 0.00 84 1015.6
20260906102948 63 0.0 0.0 0.00 0.00 0.00 84 1015.4
20260906102823 63 0.0 0.0 0.00 0.00 0.00 84 1015.4
20260906102739 63 329 0.0 2.0 0.00 0.00 0.00 84 1015.4
20260906102630 63 0.0 0.0 0.00 0.00 0.00 83 1015.5
20260906102526 63 0.0 0.0 0.00 0.00 0.00 83 1015.5
20260906102421 63 0.0 0.0 0.00 0.00 0.00 84 1015.4
20260906102317 63 331 0.0 1.0 0.00 0.00 0.00 82 1015.3
20260906102229 63 0.0 0.0 0.00 0.00 0.00 82 1015.3
20260906102124 63 0.0 0.0 0.00 0.00 0.00 83 1015.4
20260906102040 63 0.0 0.0 0.00 0.00 0.00 82 1015.4
20260906101915 63 0.0 0.0 0.00 0.00 0.00 82 1015.3
20260906101827 63 0.0 0.0 0.00 0.00 0.00 82 1015.4
20260906101723 63 0.0 0.0 0.00 0.00 0.00 83 1015.3
20260906101618 63 0.0 0.0 0.00 0.00 0.00 83 1015.4
20260906101530 63 0.0 0.0 0.00 0.00 0.00 84 1015.3
20260906101425 63 331 1.0 2.0 0.00 0.00 0.00 84 1015.3
20260906101321 63 332 0.0 2.0 0.00 0.00 0.00 83 1015.3
20260906101216 63 0.0 0.0 0.00 0.00 0.00 83 1015.2
20260906101128 63 333 0.0 1.0 0.00 0.00 0.00 83 1015.2
20260906101043 63 0.0 0.0 0.00 0.00 0.00 83 1015.2
20260906100919 63 333 1.0 2.0 0.00 0.00 0.00 81 1015.2
20260906100831 63 0.0 0.0 0.00 0.00 0.00 81 1015.3
20260906100726 63 324 1.0 2.0 0.00 0.00 0.00 81 1015.1
20260906100621 63 0.0 0.0 0.00 0.00 0.00 81 1015.1
20260906100537 63 0.0 0.0 0.00 0.00 0.00 81 1015.2
20260906100428 63 0.0 0.0 0.00 0.00 0.00 82 1015.1
20260906100324 63 330 0.0 1.0 0.00 0.00 0.00 82 1015.2
20260906100220 63 330 1.0 1.0 0.00 0.00 0.00 82 1015.0
20260906100115 63 331 0.0 1.0 0.00 0.00 0.00 82 1015.0
20260906100027 63 330 0.0 1.0 0.00 0.00 0.00 83 1015.1
20260906095942 63 330 1.0 2.0 0.00 0.00 0.00 84 1015.2
20260906095818 63 0.0 0.0 0.00 0.00 0.00 84 1015.1
20260906095729 63 0.0 0.0 0.00 0.00 0.00 84 1015.1
20260906095625 63 333 1.0 2.0 0.00 0.00 0.00 84 1015.0
20260906095521 63 319 1.0 2.0 0.00 0.00 0.00 83 1015.1
20260906095436 63 316 0.0 2.0 0.00 0.00 0.00 83 1015.0
20260906095328 63 351 0.0 1.0 0.00 0.00 0.00 84 1015.0
20260906095223 63 352 1.0 2.0 0.00 0.00 0.00 82 1015.1
20260906095119 63 0.0 0.0 0.00 0.00 0.00 81 1015.1
20260906095031 63 0.0 0.0 0.00 0.00 0.00 81 1015.2
20260906094926 63 0.0 0.0 0.00 0.00 0.00 83 1015.1
20260906094901 63 358 1.0 2.0 0.00 0.00 0.00 83 1015.0
20260906094717 63 348 0.0 2.0 0.00 0.00 0.00 83 1015.0
20260906094649 63 0.0 0.0 0.00 0.00 0.00 83 1015.1
20260906094544 63 0.0 0.0 0.00 0.00 0.00 83 1015.1
20260906094419 63 0.0 0.0 0.00 0.00 0.00 83 1014.9
20260906094315 63 342 1.0 3.0 0.00 0.00 0.00 83 1015.0
20260906094227 63 313 1.0 1.0 0.00 0.00 0.00 83 1015.1
20260906094122 64 314 0.0 1.0 0.00 0.00 0.00 81 1015.1
20260906094018 64 311 1.0 2.0 0.00 0.00 0.00 81 1015.0
20260906093929 64 0.0 0.0 0.00 0.00 0.00 81 1015.0
20260906093825 64 302 0.0 1.0 0.00 0.00 0.00 81 1014.9
20260906093720 64 302 1.0 1.0 0.00 0.00 0.00 81 1014.8
20260906093635 64 0.0 0.0 0.00 0.00 0.00 81 1014.9
20260906093527 64 0.0 0.0 0.00 0.00 0.00 81 1015.1
20260906093442 64 0.0 0.0 0.00 0.00 0.00 83 1015.1
20260906093318 64 302 1.0 1.0 0.00 0.00 0.00 83 1015.0
20260906093230 64 302 0.0 1.0 0.00 0.00 0.00 84 1015.1
20260906093125 64 301 1.0 2.0 0.00 0.00 0.00 83 1015.0
20260906093021 64 310 0.0 1.0 0.00 0.00 0.00 82 1014.9
20260906092916 64 0.0 0.0 0.00 0.00 0.00 82 1014.9
20260906092848 64 310 0.0 1.0 0.00 0.00 0.00 83 1014.8
20260906092723 64 310 0.0 1.0 0.00 0.00 0.00 83 1014.8
20260906092659 64 310 0.0 1.0 0.00 0.00 0.00 82 1014.7
20260906092531 64 310 0.0 1.0 0.00 0.00 0.00 81 1014.8
20260906092426 64 0.0 0.0 0.00 0.00 0.00 82 1014.8
20260906092321 64 310 0.0 1.0 0.00 0.00 0.00 82 1014.7
20260906092217 64 0.0 0.0 0.00 0.00 0.00 83 1014.9
20260906092129 64 310 0.0 1.0 0.00 0.00 0.00 81 1014.7
20260906092024 64 0.0 0.0 0.00 0.00 0.00 82 1014.6
20260906091919 64 0.0 0.0 0.00 0.00 0.00 83 1014.6
20260906091815 64 310 0.0 1.0 0.00 0.00 0.00 83 1014.7
20260906091727 64 310 1.0 1.0 0.00 0.00 0.00 84 1014.8
20260906091622 64 313 2.0 2.0 0.00 0.00 0.00 83 1014.6
20260906091518 64 314 0.0 1.0 0.00 0.00 0.00 82 1014.6
20260906091430 64 323 1.0 2.0 0.00 0.00 0.00 83 1014.7
20260906091325 64 342 1.0 1.0 0.00 0.00 0.00 83 1014.7
20260906091221 64 342 1.0 1.0 0.00 0.00 0.00 82 1014.6
20260906091116 64 343 1.0 2.0 0.00 0.00 0.00 81 1014.5
20260906091028 64 343 1.0 2.0 0.00 0.00 0.00 82 1014.5
20260906090923 64 342 0.0 1.0 0.00 0.00 0.00 82 1014.5
20260906090819 64 343 0.0 1.0 0.00 0.00 0.00 81 1014.4
20260906090731 64 343 0.0 1.0 0.00 0.00 0.00 82 1014.4
20260906090626 64 353 0.0 1.0 0.00 0.00 0.00 81 1014.6
20260906090522 64 353 0.0 1.0 0.00 0.00 0.00 81 1014.3
20260906090417 64 0.0 0.0 0.00 0.00 0.00 81 1014.3
20260906090349 64 353 0.0 1.0 0.00 0.00 0.00 81 1014.5
20260906090224 64 344 1.0 2.0 0.00 0.00 0.00 81 1014.5
20260906090140 64 300 0.0 1.0 0.00 0.00 0.00 82 1014.5
20260906090035 64 300 1.0 1.0 0.00 0.00 0.00 82 1014.5
20260906085927 64 300 0.0 1.0 0.00 0.00 0.00 81 1014.5
20260906085823 64 300 1.0 2.0 0.00 0.00 0.00 80 1014.5
20260906085718 64 0.0 0.0 0.00 0.00 0.00 80 1014.5
20260906085630 64 0.0 0.0 0.00 0.00 0.00 80 1014.5
20260906085525 64 0.0 0.0 0.00 0.00 0.00 81 1014.4
20260906085420 64 0.0 0.0 0.00 0.00 0.00 81 1014.4
20260906085337 64 0.0 0.0 0.00 0.00 0.00 82 1014.4
20260906085228 64 300 0.0 1.0 0.00 0.00 0.00 81 1014.6
20260906085123 64 300 1.0 2.0 0.00 0.00 0.00 81 1014.5
20260906085019 64 298 1.0 2.0 0.00 0.00 0.00 81 1014.2
20260906084931 64 298 0.0 1.0 0.00 0.00 0.00 81 1014.4
20260906084826 64 0.0 0.0 0.00 0.00 0.00 82 1014.4
20260906084722 64 297 1.0 2.0 0.00 0.00 0.00 80 1014.4
20260906084640 64 322 1.0 2.0 0.00 0.00 0.00 81 1014.4
20260906084529 64 322 0.0 1.0 0.00 0.00 0.00 81 1014.5
20260906084424 64 0.0 0.0 0.00 0.00 0.00 81 1014.4
20260906084320 64 322 1.0 1.0 0.00 0.00 0.00 80 1014.3
20260906084215 64 322 0.0 1.0 0.00 0.00 0.00 80 1014.3
20260906084127 64 0.0 0.0 0.00 0.00 0.00 80 1014.3
20260906084043 64 0.0 0.0 0.00 0.00 0.00 80 1014.4
20260906083918 64 0.0 0.0 0.00 0.00 0.00 79 1014.4
20260906083830 64 0.0 0.0 0.00 0.00 0.00 79 1014.4
20260906083726 64 322 0.0 1.0 0.00 0.00 0.00 79 1014.4
20260906083621 64 322 0.0 1.0 0.00 0.00 0.00 80 1014.4
20260906083517 64 0.0 0.0 0.00 0.00 0.00 81 1014.1
20260906083428 64 322 0.0 1.0 0.00 0.00 0.00 79 1014.2
20260906083324 64 0.0 0.0 0.00 0.00 0.00 79 1014.3
20260906083239 64 0.0 0.0 0.00 0.00 0.00 79 1014.3
20260906083131 64 322 0.0 1.0 0.00 0.00 0.00 81 1014.2
20260906083026 64 322 0.0 1.0 0.00 0.00 0.00 81 1014.1
20260906082922 64 322 1.0 2.0 0.00 0.00 0.00 81 1014.2
20260906082817 64 322 0.0 1.0 0.00 0.00 0.00 81 1014.1
20260906082729 64 323 1.0 2.0 0.00 0.00 0.00 81 1014.2
20260906082624 64 323 1.0 2.0 0.00 0.00 0.00 80 1014.3
20260906082519 64 0.0 0.0 0.00 0.00 0.00 80 1014.0
20260906082415 65 0.0 0.0 0.00 0.00 0.00 80 1014.2
20260906082347 65 324 1.0 1.0 0.00 0.00 0.00 79 1014.1
20260906082222 65 323 0.0 1.0 0.00 0.00 0.00 80 1014.1
20260906082138 65 0.0 0.0 0.00 0.00 0.00 80 1014.2
20260906082029 65 0.0 0.0 0.00 0.00 0.00 80 1014.3
20260906081925 65 0.0 0.0 0.00 0.00 0.00 81 1014.2
20260906081820 65 323 1.0 1.0 0.00 0.00 0.00 81 1014.1
20260906081716 65 323 1.0 1.0 0.00 0.00 0.00 80 1014.0
20260906081627 65 319 2.0 3.0 0.00 0.00 0.00 81 1014.2
20260906081543 65 314 0.0 2.0 0.00 0.00 0.00 80 1014.3
20260906081419 65 0.0 0.0 0.00 0.00 0.00 81 1014.2
20260906081330 65 0.0 0.0 0.00 0.00 0.00 81 1014.1
20260906081225 65 0.0 0.0 0.00 0.00 0.00 80 1014.1
20260906081121 65 0.0 0.0 0.00 0.00 0.00 80 1013.8
20260906081017 65 310 0.0 1.0 0.00 0.00 0.00 80 1013.8
20260906080928 65 310 1.0 1.0 0.00 0.00 0.00 80 1013.9
20260906080824 65 309 2.0 3.0 0.00 0.00 0.00 81 1014.1
20260906080719 65 307 2.0 2.0 0.00 0.00 0.00 81 1014.4
20260906080615 65 304 2.0 4.0 0.00 0.00 0.00 81 1014.1
20260906080527 65 296 3.0 6.0 0.00 0.00 0.00 81 1014.0
20260906080422 65 299 3.0 6.0 0.00 0.00 0.00 80 1014.0
20260906080318 65 329 1.0 1.0 0.00 0.00 0.00 79 1013.9
20260906080250 65 330 1.0 2.0 0.00 0.00 0.00 78 1014.0
20260906080125 65 0.0 0.0 0.00 0.00 0.00 79 1013.8
20260906080021 65 0.0 0.0 0.00 0.00 0.00 80 1013.9
20260906075936 65 330 0.0 1.0 0.00 0.00 0.00 80 1013.9
20260906075828 65 348 2.0 3.0 0.00 0.00 0.00 79 1013.9
20260906075723 65 333 0.0 3.0 0.00 0.00 0.00 79 1013.9
20260906075619 65 311 1.0 1.0 0.00 0.00 0.00 79 1013.9
20260906075531 65 311 1.0 1.0 0.00 0.00 0.00 79 1014.0
20260906075426 65 310 1.0 2.0 0.00 0.00 0.00 80 1014.0
20260906075321 65 305 1.0 2.0 0.00 0.00 0.00 80 1014.0
20260906075217 65 313 1.0 2.0 0.00 0.00 0.00 80 1014.0
20260906075128 65 315 1.0 3.0 0.00 0.00 0.00 78 1013.9
20260906075024 65 0.0 0.0 0.00 0.00 0.00 79 1014.0
20260906074919 65 301 0.0 1.0 0.00 0.00 0.00 80 1014.1
20260906074815 65 301 0.0 1.0 0.00 0.00 0.00 79 1013.9
20260906074727 65 302 0.0 2.0 0.00 0.00 0.00 80 1014.0
20260906074622 65 301 0.0 1.0 0.00 0.00 0.00 79 1014.0
20260906074518 65 300 1.0 1.0 0.00 0.00 0.00 80 1014.0
20260906074430 65 300 0.0 1.0 0.00 0.00 0.00 80 1014.0
20260906074325 65 301 1.0 2.0 0.00 0.00 0.00 80 1014.0
20260906074220 65 302 0.0 1.0 0.00 0.00 0.00 80 1014.1
20260906074116 65 302 0.0 1.0 0.00 0.00 0.00 80 1014.0
20260906074028 65 302 1.0 1.0 0.00 0.00 0.00 80 1014.0
20260906073923 65 302 1.0 2.0 0.00 0.00 0.00 80 1014.1
20260906073819 65 303 1.0 2.0 0.00 0.00 0.00 79 1014.0
20260906073731 65 304 1.0 1.0 0.00 0.00 0.00 79 1014.1
20260906073626 65 304 1.0 2.0 0.00 0.00 0.00 80 1014.2
20260906073521 65 305 1.0 2.0 0.00 0.00 0.00 80 1014.1
20260906073417 65 305 1.0 2.0 0.00 0.00 0.00 79 1014.2
20260906073328 65 310 1.0 3.0 0.00 0.00 0.00 78 1014.0
20260906073224 65 326 1.0 1.0 0.00 0.00 0.00 79 1014.2
20260906073120 65 326 1.0 2.0 0.00 0.00 0.00 80 1014.1
20260906073015 65 326 1.0 1.0 0.00 0.00 0.00 79 1014.1
20260906072927 65 325 1.0 2.0 0.00 0.00 0.00 79 1014.1
20260906072822 65 298 0.0 1.0 0.00 0.00 0.00 79 1014.0
20260906072718 65 298 0.0 1.0 0.00 0.00 0.00 79 1014.0
20260906072649 65 298 0.0 1.0 0.00 0.00 0.00 78 1014.0
20260906072525 65 297 1.0 2.0 0.00 0.00 0.00 79 1014.0
20260906072500 65 298 1.0 2.0 0.00 0.00 0.00 79 1013.8
20260906072316 65 299 1.0 2.0 0.00 0.00 0.00 79 1014.0
20260906072228 65 309 2.0 3.0 0.00 0.00 0.00 78 1014.2
20260906072123 65 347 1.0 2.0 0.00 0.00 0.00 77 1014.1
20260906072019 65 328 0.0 1.0 0.00 0.00 0.00 77 1014.2
20260906072011 65 0.0 0.0 0.00 0.00 0.00 77 1014.1
20260906071826 65 0.0 0.0 0.00 0.00 0.00 76 1014.2
20260906071721 65 328 0.0 1.0 0.00 0.00 0.00 77 1014.0
20260906071617 65 328 0.0 1.0 0.00 0.00 0.00 78 1014.1
20260906071529 65 0.0 0.0 0.00 0.00 0.00 78 1014.2
20260906071424 65 327 1.0 2.0 0.00 0.00 0.00 78 1014.1
20260906071320 65 335 1.0 2.0 0.00 0.00 0.00 78 1014.1
20260906071215 65 311 2.0 3.0 0.00 0.00 0.00 77 1014.2
20260906071127 65 0.0 0.0 0.00 0.00 0.00 76 1014.2
20260906071023 65 0.0 0.0 0.00 0.00 0.00 77 1014.2
20260906070938 65 0.0 0.0 0.00 0.00 0.00 78 1014.0
20260906070830 65 329 1.0 3.0 0.00 0.00 0.00 77 1014.1
20260906070725 65 328 1.0 3.0 0.00 0.00 0.00 78 1014.2
20260906070621 65 312 0.0 1.0 0.00 0.00 0.00 78 1014.2
20260906070516 65 314 2.0 2.0 0.00 0.00 0.00 78 1014.2
20260906070428 65 328 1.0 2.0 0.00 0.00 0.00 77 1014.3
20260906070323 65 331 1.0 2.0 0.00 0.00 0.00 78 1014.2
20260906070239 65 345 0.0 2.0 0.00 0.00 0.00 78 1013.9
20260906070131 65 312 1.0 2.0 0.00 0.00 0.00 77 1014.1
20260906070026 66 311 0.0 1.0 0.00 0.00 0.00 77 1014.1
20260906065921 66 0.0 0.0 0.00 0.00 0.00 78 1014.1
20260906065816 66 311 1.0 2.0 0.00 0.00 0.00 78 1014.1
20260906065728 66 311 1.0 2.0 0.00 0.00 0.00 78 1014.1
20260906065644 66 312 1.0 2.0 0.00 0.00 0.00 77 1014.1
20260906065519 66 309 1.0 2.0 0.00 0.00 0.00 78 1014.1
20260906065451 66 0.0 0.0 0.00 0.00 0.00 77 1014.0
20260906065326 66 305 1.0 1.0 0.00 0.00 0.00 77 1014.0
20260906065222 66 303 1.0 3.0 0.00 0.00 0.00 77 1014.1
20260906065118 66 323 0.0 1.0 0.00 0.00 0.00 78 1014.1
20260906065029 66 323 1.0 3.0 0.00 0.00 0.00 78 1014.1
20260906064925 66 322 1.0 2.0 0.00 0.00 0.00 77 1014.1
20260906064841 66 323 1.0 3.0 0.00 0.00 0.00 77 1014.0
20260906064716 66 300 0.0 1.0 0.00 0.00 0.00 77 1014.1
20260906064628 66 300 1.0 1.0 0.00 0.00 0.00 77 1014.1
20260906064523 66 300 1.0 1.0 0.00 0.00 0.00 77 1014.2
20260906064419 66 299 1.0 2.0 0.00 0.00 0.00 77 1014.1
20260906064330 66 300 0.0 1.0 0.00 0.00 0.00 77 1014.0
20260906064245 66 294 0.0 1.0 0.00 0.00 0.00 78 1013.9
20260906064121 66 294 1.0 1.0 0.00 0.00 0.00 78 1013.9
20260906064017 66 294 2.0 2.0 0.00 0.00 0.00 78 1013.9
20260906063928 66 306 1.0 2.0 0.00 0.00 0.00 78 1014.0
20260906063824 66 266 1.0 2.0 0.00 0.00 0.00 78 1014.1
20260906063719 66 300 1.0 1.0 0.00 0.00 0.00 78 1013.9
20260906063631 66 300 1.0 1.0 0.00 0.00 0.00 78 1014.3
20260906063526 66 301 1.0 1.0 0.00 0.00 0.00 78 1014.3
20260906063421 66 302 1.0 1.0 0.00 0.00 0.00 78 1014.1
20260906063317 66 308 1.0 1.0 0.00 0.00 0.00 78 1014.0
20260906063228 66 309 1.0 1.0 0.00 0.00 0.00 78 1014.0
20260906063124 66 312 1.0 2.0 0.00 0.00 0.00 78 1014.0
20260906063020 66 317 1.0 2.0 0.00 0.00 0.00 78 1014.0
20260906062915 66 318 0.0 1.0 0.00 0.00 0.00 78 1013.9
20260906062827 66 318 1.0 1.0 0.00 0.00 0.00 77 1014.1
20260906062722 66 0.0 0.0 0.00 0.00 0.00 77 1014.0
20260906062618 66 318 0.0 1.0 0.00 0.00 0.00 77 1013.8
20260906062530 66 0.0 0.0 0.00 0.00 0.00 76 1014.1
20260906062425 66 0.0 0.0 0.00 0.00 0.00 77 1014.2
20260906062321 66 325 0.0 1.0 0.00 0.00 0.00 77 1014.2
20260906062236 66 0.0 0.0 0.00 0.00 0.00 78 1013.9
20260906062128 66 325 0.0 1.0 0.00 0.00 0.00 78 1014.2
20260906062023 66 324 0.0 1.0 0.00 0.00 0.00 78 1014.1
20260906061939 66 0.0 0.0 0.00 0.00 0.00 78 1014.1
20260906061830 66 324 0.0 1.0 0.00 0.00 0.00 78 1014.0
20260906061726 66 324 1.0 1.0 0.00 0.00 0.00 78 1014.2
20260906061621 66 324 1.0 1.0 0.00 0.00 0.00 78 1014.1
20260906061517 66 324 1.0 1.0 0.00 0.00 0.00 78 1014.3
20260906061428 66 324 0.0 1.0 0.00 0.00 0.00 78 1014.2
20260906061324 66 324 1.0 1.0 0.00 0.00 0.00 79 1014.2
20260906061220 66 324 1.0 1.0 0.00 0.00 0.00 78 1014.1
20260906061115 65 324 0.0 1.0 0.00 0.00 0.00 78 1014.1
20260906061047 66 324 1.0 1.0 0.00 0.00 0.00 78 1014.1
20260906060922 65 324 0.0 1.0 0.00 0.00 0.00 78 1014.3
20260906060818 65 325 0.0 1.0 0.00 0.00 0.00 77 1014.4
20260906060810 65 324 0.0 1.0 0.00 0.00 0.00 77 1014.3
20260906060646 66 325 0.0 1.0 0.00 0.00 0.00 77 1014.3
20260906060521 66 0.0 0.0 0.00 0.00 0.00 76 1014.3
20260906060416 66 0.0 0.0 0.00 0.00 0.00 76 1014.3
20260906060328 66 0.0 0.0 0.00 0.00 0.00 77 1014.2
20260906060244 66 325 0.0 1.0 0.00 0.00 0.00 77 1014.2
20260906060119 66 325 0.0 1.0 0.00 0.00 0.00 77 1014.2
20260906060051 66 324 0.0 1.0 0.00 0.00 0.00 77 1014.4
20260906055926 66 324 0.0 1.0 0.00 0.00 0.00 77 1014.3
20260906055821 66 324 0.0 1.0 0.00 0.00 0.00 77 1014.4
20260906055717 66 324 0.0 1.0 0.00 0.00 0.00 77 1014.5
20260906055629 66 324 0.0 1.0 0.00 0.00 0.00 77 1014.4
20260906055524 66 324 0.0 1.0 0.00 0.00 0.00 77 1014.4
20260906055420 66 0.0 0.0 0.00 0.00 0.00 77 1014.3
20260906055315 66 325 0.0 1.0 0.00 0.00 0.00 78 1014.5
20260906055227 66 324 1.0 1.0 0.00 0.00 0.00 78 1014.4
20260906055123 66 324 1.0 1.0 0.00 0.00 0.00 78 1014.4
20260906055018 66 324 1.0 2.0 0.00 0.00 0.00 78 1014.4
20260906054930 66 324 1.0 1.0 0.00 0.00 0.00 78 1014.6
20260906054826 65 324 1.0 1.0 0.00 0.00 0.00 78 1014.4
20260906054721 65 324 1.0 2.0 0.00 0.00 0.00 77 1014.4
20260906054617 65 324 0.0 1.0 0.00 0.00 0.00 78 1014.3
20260906054528 65 324 1.0 1.0 0.00 0.00 0.00 78 1014.4
20260906054423 65 324 1.0 1.0 0.00 0.00 0.00 78 1014.5
20260906054319 65 324 0.0 1.0 0.00 0.00 0.00 77 1014.5
20260906054231 65 325 0.0 1.0 0.00 0.00 0.00 76 1014.5
20260906054126 65 324 0.0 1.0 0.00 0.00 0.00 77 1014.5
20260906054021 65 325 0.0 1.0 0.00 0.00 0.00 77 1014.4
20260906053917 65 0.0 0.0 0.00 0.00 0.00 76 1014.3
20260906053828 65 325 0.0 1.0 0.00 0.00 0.00 77 1014.4
20260906053744 65 325 0.0 1.0 0.00 0.00 0.00 76 1014.5
20260906053619 65 324 0.0 1.0 0.00 0.00 0.00 77 1014.4
20260906053515 65 0.0 0.0 0.00 0.00 0.00 77 1014.3
20260906053427 65 324 0.0 1.0 0.00 0.00 0.00 77 1014.4
20260906053342 65 324 1.0 1.0 0.00 0.00 0.00 77 1014.4
20260906053218 65 0.0 0.0 0.00 0.00 0.00 77 1014.5
20260906053149 65 324 0.0 1.0 0.00 0.00 0.00 77 1014.5
20260906053025 65 324 0.0 1.0 0.00 0.00 0.00 76 1014.4
20260906052921 65 0.0 0.0 0.00 0.00 0.00 76 1014.4
20260906052816 65 324 0.0 1.0 0.00 0.00 0.00 77 1014.5
20260906052728 65 324 1.0 1.0 0.00 0.00 0.00 76 1014.5
20260906052623 65 324 0.0 1.0 0.00 0.00 0.00 73 1014.5
20260906052519 65 0.0 0.0 0.00 0.00 0.00 73 1014.4
20260906052430 65 0.0 0.0 0.00 0.00 0.00 73 1014.5
20260906052346 65 0.0 0.0 0.00 0.00 0.00 73 1014.5
20260906052221 65 0.0 0.0 0.00 0.00 0.00 73 1014.4
20260906052117 65 0.0 0.0 0.00 0.00 0.00 73 1014.4
20260906052029 66 325 0.0 1.0 0.00 0.00 0.00 73 1014.4
20260906052004 66 325 0.0 2.0 0.00 0.00 0.00 71 1014.4
20260906051839 66 0.0 0.0 0.00 0.00 0.00 73 1014.4
20260906051735 66 0.0 0.0 0.00 0.00 0.00 72 1014.5
20260906051647 66 0.0 0.0 0.00 0.00 0.00 72 1014.4
20260906051542 66 0.0 0.0 0.00 0.00 0.00 72 1014.5
20260906051418 66 0.0 0.0 0.00 0.00 0.00 72 1014.4
20260906051330 66 0.0 0.0 0.00 0.00 0.00 73 1014.4
20260906051225 66 0.0 0.0 0.00 0.00 0.00 73 1014.6
20260906051121 66 0.0 0.0 0.00 0.00 0.00 73 1014.6
20260906051016 66 0.0 0.0 0.00 0.00 0.00 73 1014.6
20260906050928 66 0.0 0.0 0.00 0.00 0.00 73 1014.5
20260906050823 66 0.0 0.0 0.00 0.00 0.00 74 1014.5
20260906050719 66 0.0 0.0 0.00 0.00 0.00 73 1014.5
20260906050631 66 0.0 0.0 0.00 0.00 0.00 73 1014.5
20260906050526 66 0.0 0.0 0.00 0.00 0.00 73 1014.5
20260906050501 66 0.0 0.0 0.00 0.00 0.00 73 1014.4
20260906050337 66 0.0 0.0 0.00 0.00 0.00 74 1014.3
20260906050228 66 0.0 0.0 0.00 0.00 0.00 75 1014.3
20260906050144 66 0.0 0.0 0.00 0.00 0.00 75 1014.3
20260906050019 66 324 1.0 1.0 0.00 0.00 0.00 74 1014.4
20260906045931 66 0.0 0.0 0.00 0.00 0.00 74 1014.3
20260906045846 66 324 0.0 1.0 0.00 0.00 0.00 74 1014.5
20260906045822 66 0.0 0.0 0.00 0.00 0.00 74 1014.6
20260906045617 66 0.0 0.0 0.00 0.00 0.00 74 1014.5
20260906045549 66 0.0 0.0 0.00 0.00 0.00 74 1014.5
20260906045425 66 0.0 0.0 0.00 0.00 0.00 74 1014.5
20260906045320 66 324 0.0 1.0 0.00 0.00 0.00 75 1014.6
20260906045216 66 324 0.0 1.0 0.00 0.00 0.00 75 1014.6
20260906045127 66 0.0 0.0 0.00 0.00 0.00 75 1014.5
20260906045022 66 0.0 0.0 0.00 0.00 0.00 75 1014.5
20260906044919 66 324 0.0 1.0 0.00 0.00 0.00 75 1014.5
20260906044829 66 324 1.0 1.0 0.00 0.00 0.00 75 1014.6
20260906044725 66 324 1.0 1.0 0.00 0.00 0.00 74 1014.5
20260906044621 66 324 0.0 1.0 0.00 0.00 0.00 75 1014.5
20260906044516 66 324 1.0 1.0 0.00 0.00 0.00 75 1014.6
20260906044428 66 324 1.0 1.0 0.00 0.00 0.00 75 1014.6
20260906044323 66 324 1.0 1.0 0.00 0.00 0.00 74 1014.6
20260906044219 66 324 1.0 1.0 0.00 0.00 0.00 75 1014.5
20260906044131 66 324 0.0 1.0 0.00 0.00 0.00 75 1014.6
20260906044025 66 324 1.0 1.0 0.00 0.00 0.00 74 1014.6
20260906043921 66 324 0.0 1.0 0.00 0.00 0.00 73 1014.5
20260906043817 66 324 0.0 1.0 0.00 0.00 0.00 74 1014.4
20260906043729 66 324 1.0 1.0 0.00 0.00 0.00 73 1014.7
20260906043644 66 0.0 0.0 0.00 0.00 0.00 72 1014.7
20260906043519 66 325 0.0 1.0 0.00 0.00 0.00 71 1014.6
20260906043415 66 0.0 0.0 0.00 0.00 0.00 72 1014.7
20260906043327 66 0.0 0.0 0.00 0.00 0.00 71 1014.6
20260906043242 66 0.0 0.0 0.00 0.00 0.00 70 1014.6
20260906043118 66 0.0 0.0 0.00 0.00 0.00 70 1014.4
20260906043029 67 0.0 0.0 0.00 0.00 0.00 70 1014.4
20260906042925 67 0.0 0.0 0.00 0.00 0.00 70 1014.4
20260906042821 67 0.0 0.0 0.00 0.00 0.00 70 1014.2
20260906042756 67 0.0 0.0 0.00 0.00 0.00 70 1014.4
20260906042628 67 0.0 0.0 0.00 0.00 0.00 70 1014.2
20260906042523 67 0.0 0.0 0.00 0.00 0.00 70 1014.5
20260906042419 67 0.0 0.0 0.00 0.00 0.00 70 1014.5
20260906042331 67 0.0 0.0 0.00 0.00 0.00 70 1014.5
20260906042226 67 0.0 0.0 0.00 0.00 0.00 71 1014.4
20260906042121 67 0.0 0.0 0.00 0.00 0.00 71 1014.5
20260906042017 67 0.0 0.0 0.00 0.00 0.00 70 1014.3
20260906041928 67 0.0 0.0 0.00 0.00 0.00 70 1014.4
20260906041824 67 0.0 0.0 0.00 0.00 0.00 70 1014.3
20260906041720 67 0.0 0.0 0.00 0.00 0.00 70 1014.2
20260906041631 67 0.0 0.0 0.00 0.00 0.00 71 1014.4
20260906041526 67 0.0 0.0 0.00 0.00 0.00 71 1014.4
20260906041422 67 0.0 0.0 0.00 0.00 0.00 72 1014.4
20260906041318 67 0.0 0.0 0.00 0.00 0.00 71 1014.1
20260906041249 67 0.0 0.0 0.00 0.00 0.00 72 1014.4
20260906041125 67 0.0 0.0 0.00 0.00 0.00 72 1014.3
20260906041041 67 0.0 0.0 0.00 0.00 0.00 72 1014.3
20260906040916 67 324 0.0 1.0 0.00 0.00 0.00 71 1014.4
20260906040828 67 324 0.0 1.0 0.00 0.00 0.00 70 1014.4
20260906040723 67 324 0.0 1.0 0.00 0.00 0.00 70 1014.4
20260906040619 67 324 0.0 1.0 0.00 0.00 0.00 70 1014.4
20260906040531 67 324 0.0 1.0 0.00 0.00 0.00 69 1014.5
20260906040446 67 0.0 0.0 0.00 0.00 0.00 68 1014.5
20260906040321 67 0.0 0.0 0.00 0.00 0.00 68 1014.4
20260906040217 67 0.0 0.0 0.00 0.00 0.00 68 1014.5
20260906040129 67 0.0 0.0 0.00 0.00 0.00 69 1014.3
20260906040024 67 0.0 0.0 0.00 0.00 0.00 68 1014.3
20260906035940 67 0.0 0.0 0.00 0.00 0.00 68 1014.3
20260906035835 67 0.0 0.0 0.00 0.00 0.00 68 1014.5
20260906035727 67 0.0 0.0 0.00 0.00 0.00 69 1014.4
20260906035642 67 0.0 0.0 0.00 0.00 0.00 69 1014.4
20260906035518 67 0.0 0.0 0.00 0.00 0.00 70 1014.5
20260906035430 67 0.0 0.0 0.00 0.00 0.00 70 1014.5
20260906035325 68 324 0.0 1.0 0.00 0.00 0.00 69 1014.6
20260906035221 68 324 0.0 1.0 0.00 0.00 0.00 69 1014.7
20260906035116 68 324 0.0 1.0 0.00 0.00 0.00 69 1014.4
20260906035028 68 0.0 0.0 0.00 0.00 0.00 69 1014.4
20260906034923 68 0.0 0.0 0.00 0.00 0.00 68 1014.4
20260906034819 68 0.0 0.0 0.00 0.00 0.00 69 1014.4
20260906034731 68 325 1.0 2.0 0.00 0.00 0.00 69 1014.5
20260906034626 68 0.0 0.0 0.00 0.00 0.00 68 1014.5
20260906034521 68 0.0 0.0 0.00 0.00 0.00 68 1014.4
20260906034437 68 0.0 0.0 0.00 0.00 0.00 69 1014.3
20260906034328 68 323 0.0 1.0 0.00 0.00 0.00 69 1014.5
20260906034224 68 323 1.0 2.0 0.00 0.00 0.00 69 1014.5
20260906034119 68 323 0.0 1.0 0.00 0.00 0.00 70 1014.3
20260906034110 68 324 1.0 1.0 0.00 0.00 0.00 70 1014.4
20260906033926 68 322 0.0 1.0 0.00 0.00 0.00 70 1014.4
20260906033821 68 321 1.0 2.0 0.00 0.00 0.00 69 1014.4
20260906033717 68 318 2.0 3.0 0.00 0.00 0.00 70 1014.4
20260906033628 68 327 1.0 1.0 0.00 0.00 0.00 69 1014.3
20260906033524 68 327 0.0 1.0 0.00 0.00 0.00 68 1014.4
20260906033419 68 0.0 0.0 0.00 0.00 0.00 68 1014.4
20260906033315 68 0.0 0.0 0.00 0.00 0.00 68 1014.3
20260906033227 68 0.0 0.0 0.00 0.00 0.00 68 1014.3
20260906033122 68 0.0 0.0 0.00 0.00 0.00 68 1014.3
20260906033018 68 0.0 0.0 0.00 0.00 0.00 68 1014.3
20260906032929 68 0.0 0.0 0.00 0.00 0.00 69 1014.4
20260906032825 68 0.0 0.0 0.00 0.00 0.00 68 1014.3
20260906032740 68 0.0 0.0 0.00 0.00 0.00 69 1014.4
20260906032616 68 327 0.0 1.0 0.00 0.00 0.00 69 1014.4
20260906032527 68 327 0.0 1.0 0.00 0.00 0.00 68 1014.2
20260906032423 68 0.0 0.0 0.00 0.00 0.00 70 1014.1
20260906032319 68 327 1.0 1.0 0.00 0.00 0.00 69 1013.9
20260906032250 68 328 0.0 1.0 0.00 0.00 0.00 69 1014.3
20260906032126 69 328 1.0 1.0 0.00 0.00 0.00 69 1014.3
20260906032041 69 328 1.0 2.0 0.00 0.00 0.00 69 1014.4
20260906031937 69 327 0.0 1.0 0.00 0.00 0.00 68 1014.2
20260906031908 69 327 0.0 1.0 0.00 0.00 0.00 69 1014.2
20260906031744 69 326 1.0 2.0 0.00 0.00 0.00 69 1014.3
20260906031619 69 328 1.0 2.0 0.00 0.00 0.00 68 1014.3
20260906031531 69 325 0.0 1.0 0.00 0.00 0.00 69 1014.2
20260906031427 69 325 1.0 1.0 0.00 0.00 0.00 69 1014.0
20260906031322 69 325 0.0 1.0 0.00 0.00 0.00 68 1014.1
20260906031218 69 324 1.0 2.0 0.00 0.00 0.00 68 1014.2
20260906031129 69 325 0.0 2.0 0.00 0.00 0.00 67 1014.0
20260906031025 69 328 0.0 1.0 0.00 0.00 0.00 67 1014.1
20260906030921 69 327 0.0 1.0 0.00 0.00 0.00 68 1014.1
20260906030816 69 325 0.0 1.0 0.00 0.00 0.00 68 1013.9
20260906030727 69 325 1.0 2.0 0.00 0.00 0.00 68 1014.1
20260906030623 69 324 1.0 2.0 0.00 0.00 0.00 68 1013.9
20260906030519 69 0.0 0.0 0.00 0.00 0.00 67 1013.9
20260906030430 69 325 0.0 1.0 0.00 0.00 0.00 68 1014.0
20260906030326 69 324 1.0 2.0 0.00 0.00 0.00 67 1014.0
20260906030221 69 319 0.0 1.0 0.00 0.00 0.00 67 1014.0
20260906030137 69 319 0.0 1.0 0.00 0.00 0.00 67 1013.9
20260906030028 69 0.0 0.0 0.00 0.00 0.00 68 1014.1
20260906025924 69 314 1.0 1.0 0.00 0.00 0.00 68 1014.2
20260906025819 69 312 1.0 1.0 0.00 0.00 0.00 67 1013.9
20260906025715 69 311 0.0 1.0 0.00 0.00 0.00 67 1014.1
20260906025626 69 310 1.0 1.0 0.00 0.00 0.00 67 1014.1
20260906025522 69 311 1.0 2.0 0.00 0.00 0.00 68 1014.1
20260906025417 69 311 1.0 2.0 0.00 0.00 0.00 68 1013.9
20260906025329 69 311 1.0 2.0 0.00 0.00 0.00 68 1014.0
20260906025225 69 312 1.0 1.0 0.00 0.00 0.00 67 1014.0
20260906025120 69 0.0 0.0 0.00 0.00 0.00 68 1014.0
20260906025016 69 312 0.0 1.0 0.00 0.00 0.00 68 1013.9
20260906024928 69 309 2.0 3.0 0.00 0.00 0.00 67 1014.2
20260906024823 70 311 1.0 2.0 0.00 0.00 0.00 67 1014.2
20260906024719 70 311 1.0 2.0 0.00 0.00 0.00 67 1014.0
20260906024630 70 311 0.0 1.0 0.00 0.00 0.00 68 1014.0
20260906024525 70 311 1.0 1.0 0.00 0.00 0.00 66 1014.2
20260906024421 70 311 0.0 1.0 0.00 0.00 0.00 67 1014.2
20260906024317 70 312 1.0 2.0 0.00 0.00 0.00 68 1013.9
20260906024228 70 308 2.0 3.0 0.00 0.00 0.00 67 1014.1
20260906024124 70 313 1.0 1.0 0.00 0.00 0.00 68 1014.2
20260906024019 70 313 1.0 1.0 0.00 0.00 0.00 68 1014.2
20260906023915 70 313 1.0 1.0 0.00 0.00 0.00 68 1014.1
20260906023827 70 315 1.0 2.0 0.00 0.00 0.00 68 1014.2
20260906023722 70 329 1.0 2.0 0.00 0.00 0.00 67 1014.2
20260906023618 70 329 1.0 2.0 0.00 0.00 0.00 68 1014.2
20260906023529 70 325 1.0 1.0 0.00 0.00 0.00 68 1014.0
20260906023505 70 318 1.0 2.0 0.00 0.00 0.00 68 1014.0
20260906023320 70 311 1.0 1.0 0.00 0.00 0.00 68 1014.0
20260906023308 70 311 0.0 1.0 0.00 0.00 0.00 67 1014.1
20260906023023 70 296 2.0 3.0 0.00 0.00 0.00 68 1014.0
20260906022918 70 310 2.0 3.0 0.00 0.00 0.00 68 1014.0
20260906022909 70 299 1.0 2.0 0.00 0.00 0.00 68 1014.2
20260906022725 70 309 2.0 4.0 0.00 0.00 0.00 68 1014.0
20260906022620 70 313 0.0 1.0 0.00 0.00 0.00 68 1014.0
20260906022516 70 318 1.0 3.0 0.00 0.00 0.00 67 1013.9
20260906022427 70 323 1.0 2.0 0.00 0.00 0.00 67 1013.9
20260906022323 70 322 1.0 3.0 0.00 0.00 0.00 68 1013.9
20260906022219 70 313 2.0 3.0 0.00 0.00 0.00 67 1013.9
20260906022130 70 280 0.0 2.0 0.00 0.00 0.00 68 1014.0
20260906022046 70 280 1.0 2.0 0.00 0.00 0.00 67 1014.0
20260906021921 70 279 1.0 1.0 0.00 0.00 0.00 67 1014.0
20260906021817 70 279 0.0 1.0 0.00 0.00 0.00 68 1014.1
20260906021728 70 279 0.0 1.0 0.00 0.00 0.00 67 1014.0
20260906021624 70 279 1.0 1.0 0.00 0.00 0.00 67 1014.0
20260906021519 70 288 2.0 3.0 0.00 0.00 0.00 67 1014.0
20260906021435 70 324 1.0 1.0 0.00 0.00 0.00 67 1014.1
20260906021326 70 327 0.0 1.0 0.00 0.00 0.00 66 1014.0
20260906021221 70 327 0.0 1.0 0.00 0.00 0.00 67 1014.0
20260906021117 70 327 1.0 2.0 0.00 0.00 0.00 66 1013.9
20260906021028 70 325 1.0 2.0 0.00 0.00 0.00 67 1014.3
20260906020924 70 325 1.0 1.0 0.00 0.00 0.00 66 1014.2
20260906020819 70 325 0.0 2.0 0.00 0.00 0.00 66 1014.1
20260906020751 70 322 1.0 2.0 0.00 0.00 0.00 66 1014.1
20260906020627 70 320 0.0 1.0 0.00 0.00 0.00 67 1014.1
20260906020602 70 320 1.0 2.0 0.00 0.00 0.00 67 1014.1
20260906020418 70 322 1.0 1.0 0.00 0.00 0.00 67 1013.9
20260906020329 70 319 1.0 2.0 0.00 0.00 0.00 67 1014.1
20260906020245 70 316 0.0 1.0 0.00 0.00 0.00 67 1014.1
20260906020121 70 316 1.0 2.0 0.00 0.00 0.00 67 1014.0
20260906020016 70 322 1.0 2.0 0.00 0.00 0.00 67 1014.1
20260906015928 70 324 2.0 3.0 0.00 0.00 0.00 67 1014.0
20260906015823 70 318 1.0 1.0 0.00 0.00 0.00 67 1014.0
20260906015719 70 346 1.0 1.0 0.00 0.00 0.00 67 1013.9
20260906015630 70 310 1.0 2.0 0.00 0.00 0.00 67 1013.9
20260906015625 70 314 1.0 2.0 0.00 0.00 0.00 67 1013.9
20260906015421 70 314 1.0 2.0 0.00 0.00 0.00 68 1013.9
20260906015337 70 315 1.0 2.0 0.00 0.00 0.00 66 1013.9
20260906015228 70 316 1.0 2.0 0.00 0.00 0.00 66 1014.0
20260906015124 70 315 1.0 2.0 0.00 0.00 0.00 66 1014.0
20260906015020 70 315 1.0 2.0 0.00 0.00 0.00 66 1013.8
20260906014915 70 318 0.0 1.0 0.00 0.00 0.00 66 1013.9
20260906014827 70 317 1.0 2.0 0.00 0.00 0.00 67 1013.9
20260906014722 70 318 1.0 3.0 0.00 0.00 0.00 66 1014.0
20260906014618 70 0.0 0.0 0.00 0.00 0.00 67 1013.7
20260906014529 70 0.0 0.0 0.00 0.00 0.00 68 1013.9
20260906014425 70 323 0.0 1.0 0.00 0.00 0.00 67 1014.0
20260906014320 70 323 0.0 1.0 0.00 0.00 0.00 66 1014.0
20260906014216 70 323 1.0 1.0 0.00 0.00 0.00 67 1014.0
20260906014144 70 323 1.0 2.0 0.00 0.00 0.00 67 1013.9
20260906013919 70 321 1.0 2.0 0.00 0.00 0.00 66 1013.8
20260906013911 70 320 1.0 2.0 0.00 0.00 0.00 68 1013.8
20260906013726 70 319 1.0 2.0 0.00 0.00 0.00 67 1013.7
20260906013621 70 319 0.0 2.0 0.00 0.00 0.00 67 1013.7
20260906013517 70 319 0.0 1.0 0.00 0.00 0.00 66 1013.8
20260906013429 70 319 0.0 1.0 0.00 0.00 0.00 65 1013.8
20260906013404 70 0.0 0.0 0.00 0.00 0.00 65 1013.7
20260906013220 70 0.0 0.0 0.00 0.00 0.00 65 1013.8
20260906013155 70 0.0 0.0 0.00 0.00 0.00 65 1013.7
20260906013027 70 0.0 0.0 0.00 0.00 0.00 65 1013.7
20260906012922 71 319 1.0 2.0 0.00 0.00 0.00 64 1013.8
20260906012818 71 320 0.0 1.0 0.00 0.00 0.00 64 1013.8
20260906012810 71 0.0 0.0 0.00 0.00 0.00 65 1013.7
20260906012625 71 0.0 0.0 0.00 0.00 0.00 65 1013.7
20260906012541 71 0.0 0.0 0.00 0.00 0.00 66 1013.7
20260906012416 71 0.0 0.0 0.00 0.00 0.00 66 1013.7
20260906012328 71 0.0 0.0 0.00 0.00 0.00 67 1013.7
20260906012223 71 319 0.0 1.0 0.00 0.00 0.00 67 1013.5
20260906012119 71 319 0.0 1.0 0.00 0.00 0.00 66 1013.5
20260906012030 71 319 0.0 1.0 0.00 0.00 0.00 65 1013.6
20260906011946 71 0.0 0.0 0.00 0.00 0.00 63 1013.7
20260906011841 71 0.0 0.0 0.00 0.00 0.00 63 1013.6
20260906011717 71 0.0 0.0 0.00 0.00 0.00 63 1013.4
20260906011628 71 0.0 0.0 0.00 0.00 0.00 63 1013.7
20260906011524 71 0.0 0.0 0.00 0.00 0.00 63 1013.5
20260906011420 71 0.0 0.0 0.00 0.00 0.00 63 1013.7
20260906011331 71 0.0 0.0 0.00 0.00 0.00 64 1013.4
20260906011226 71 0.0 0.0 0.00 0.00 0.00 65 1013.7
20260906011202 71 0.0 0.0 0.00 0.00 0.00 65 1013.7
20260906011017 71 0.0 0.0 0.00 0.00 0.00 64 1013.6
20260906010928 71 0.0 0.0 0.00 0.00 0.00 64 1013.6
20260906010824 71 0.0 0.0 0.00 0.00 0.00 63 1013.6
20260906010720 71 0.0 0.0 0.00 0.00 0.00 63 1013.6
20260906010631 71 320 0.0 1.0 0.00 0.00 0.00 62 1013.5
20260906010526 71 0.0 0.0 0.00 0.00 0.00 63 1013.6
20260906010422 71 319 0.0 1.0 0.00 0.00 0.00 64 1013.6
20260906010317 71 319 1.0 2.0 0.00 0.00 0.00 65 1013.5
20260906010229 71 320 0.0 1.0 0.00 0.00 0.00 64 1013.6
20260906010124 71 320 0.0 1.0 0.00 0.00 0.00 64 1013.5
20260906010019 71 320 1.0 1.0 0.00 0.00 0.00 62 1013.5
20260906005915 71 320 0.0 2.0 0.00 0.00 0.00 61 1013.4
20260906005826 71 0.0 0.0 0.00 0.00 0.00 61 1013.5
20260906005722 71 0.0 0.0 0.00 0.00 0.00 60 1013.5
20260906005617 71 0.0 0.0 0.00 0.00 0.00 60 1013.4
20260906005528 71 0.0 0.0 0.00 0.00 0.00 61 1013.3
20260906005443 71 0.0 0.0 0.00 0.00 0.00 61 1013.5
20260906005319 72 0.0 0.0 0.00 0.00 0.00 61 1013.4
20260906005231 72 0.0 0.0 0.00 0.00 0.00 62 1013.3
20260906005125 72 331 0.0 1.0 0.00 0.00 0.00 60 1013.4
20260906005021 72 0.0 0.0 0.00 0.00 0.00 60 1013.4
20260906004917 72 0.0 0.0 0.00 0.00 0.00 60 1013.4
20260906004828 72 331 0.0 1.0 0.00 0.00 0.00 61 1013.3
20260906004723 72 331 0.0 1.0 0.00 0.00 0.00 61 1013.2
20260906004639 72 331 0.0 1.0 0.00 0.00 0.00 61 1013.2
20260906004550 72 0.0 0.0 0.00 0.00 0.00 60 1013.4
20260906004426 72 0.0 0.0 0.00 0.00 0.00 61 1013.3
20260906004342 72 0.0 0.0 0.00 0.00 0.00 60 1013.3
20260906004217 72 332 0.0 1.0 0.00 0.00 0.00 60 1013.3
20260906004128 72 0.0 0.0 0.00 0.00 0.00 59 1013.2
20260906004024 72 0.0 0.0 0.00 0.00 0.00 60 1013.3
20260906003920 72 0.0 0.0 0.00 0.00 0.00 60 1013.3
20260906003851 72 331 0.0 1.0 0.00 0.00 0.00 60 1013.2
20260906003726 73 331 0.0 1.0 0.00 0.00 0.00 60 1013.2
20260906003622 73 0.0 0.0 0.00 0.00 0.00 58 1013.2
20260906003517 73 0.0 0.0 0.00 0.00 0.00 58 1013.2
20260906003429 73 0.0 0.0 0.00 0.00 0.00 58 1013.2
20260906003324 73 0.0 0.0 0.00 0.00 0.00 58 1013.3
20260906003219 73 0.0 0.0 0.00 0.00 0.00 58 1013.3
20260906003135 73 0.0 0.0 0.00 0.00 0.00 59 1013.0
20260906003027 73 0.0 0.0 0.00 0.00 0.00 59 1013.0
20260906002922 73 0.0 0.0 0.00 0.00 0.00 59 1013.0
20260906002818 73 0.0 0.0 0.00 0.00 0.00 59 1012.9
20260906002730 73 332 0.0 1.0 0.00 0.00 0.00 60 1012.9
20260906002625 73 332 1.0 1.0 0.00 0.00 0.00 61 1013.0
20260906002520 73 331 1.0 1.0 0.00 0.00 0.00 60 1013.0
20260906002416 73 331 1.0 1.0 0.00 0.00 0.00 59 1012.9
20260906002328 73 336 1.0 2.0 0.00 0.00 0.00 58 1013.1
20260906002223 73 350 0.0 1.0 0.00 0.00 0.00 58 1013.0
20260906002119 73 351 0.0 1.0 0.00 0.00 0.00 58 1012.9
20260906002051 74 0.0 0.0 0.00 0.00 0.00 58 1012.9
20260906001926 74 0.0 0.0 0.00 0.00 0.00 58 1013.0
20260906001837 74 351 0.0 1.0 0.00 0.00 0.00 59 1013.1
20260906001629 74 351 0.0 1.0 0.00 0.00 0.00 58 1013.0
20260906001524 74 351 0.0 1.0 0.00 0.00 0.00 59 1012.9
20260906001420 74 342 1.0 2.0 0.00 0.00 0.00 59 1012.8
20260906001315 74 312 0.0 1.0 0.00 0.00 0.00 59 1012.8
20260906001307 74 312 0.0 1.0 0.00 0.00 0.00 58 1012.9
20260906001122 74 0.0 0.0 0.00 0.00 0.00 58 1012.8
20260906001018 74 312 1.0 2.0 0.00 0.00 0.00 58 1012.6
20260906000930 74 312 1.0 2.0 0.00 0.00 0.00 58 1012.7
20260906000825 74 312 1.0 1.0 0.00 0.00 0.00 57 1012.8
20260906000721 74 312 1.0 1.0 0.00 0.00 0.00 57 1012.7
20260906000616 74 312 1.0 1.0 0.00 0.00 0.00 58 1012.8
20260906000528 75 311 1.0 2.0 0.00 0.00 0.00 58 1012.7
20260906000425 75 312 0.0 1.0 0.00 0.00 0.00 57 1012.7
20260906000340 75 312 1.0 1.0 0.00 0.00 0.00 58 1012.7
20260906000231 75 310 1.0 2.0 0.00 0.00 0.00 58 1012.6
20260906000126 75 0.0 0.0 0.00 0.00 0.00 57 1012.5
20260906000022 75 0.0 0.0 0.00 0.00 0.00 57 1012.8
20260905235917 75 0.0 0.0 0.00 0.00 0.00 57 1012.6
20260905235829 75 308 0.0 1.0 0.00 0.00 0.00 56 1012.6
20260905235744 75 0.0 0.0 0.00 0.00 0.00 56 1012.7
20260905235620 75 0.0 0.0 0.00 0.00 0.00 57 1012.8
20260905235515 75 308 1.0 2.0 0.00 0.00 0.00 57 1012.6
20260905235427 75 307 0.0 1.0 0.00 0.00 0.00 56 1012.8
20260905235323 75 307 0.0 1.0 0.00 0.00 0.00 56 1012.7
20260905235218 76 0.0 0.0 0.00 0.00 0.00 56 1012.7
20260905235130 76 304 1.0 2.0 0.00 0.00 0.00 57 1012.6
20260905235025 76 301 1.0 2.0 0.00 0.00 0.00 56 1012.6
20260905234921 76 301 1.0 2.0 0.00 0.00 0.00 56 1012.6
20260905234817 76 301 1.0 1.0 0.00 0.00 0.00 56 1012.7
20260905234728 76 295 2.0 4.0 0.00 0.00 0.00 57 1012.6
20260905234624 76 291 2.0 2.0 0.00 0.00 0.00 55 1012.7
20260905234519 76 288 1.0 1.0 0.00 0.00 0.00 55 1012.6
20260905234431 76 288 0.0 1.0 0.00 0.00 0.00 56 1012.6
20260905234326 76 288 0.0 1.0 0.00 0.00 0.00 56 1012.5
20260905234222 76 278 1.0 2.0 0.00 0.00 0.00 56 1012.7
20260905234138 76 266 1.0 1.0 0.00 0.00 0.00 55 1012.6
20260905234029 76 258 1.0 1.0 0.00 0.00 0.00 56 1012.4
20260905233925 76 294 3.0 4.0 0.00 0.00 0.00 55 1012.5
20260905233821 76 322 2.0 4.0 0.00 0.00 0.00 55 1012.6
20260905233716 77 316 2.0 3.0 0.00 0.00 0.00 55 1012.4
20260905233628 77 337 1.0 2.0 0.00 0.00 0.00 55 1012.6
20260905233523 77 337 1.0 2.0 0.00 0.00 0.00 55 1012.4
20260905233419 77 327 1.0 2.0 0.00 0.00 0.00 55 1012.4
20260905233351 77 314 1.0 1.0 0.00 0.00 0.00 55 1012.5
20260905233226 77 330 1.0 2.0 0.00 0.00 0.00 55 1012.4
20260905233141 77 329 1.0 2.0 0.00 0.00 0.00 54 1012.6
20260905233017 77 304 1.0 2.0 0.00 0.00 0.00 54 1012.3
20260905232928 77 276 1.0 2.0 0.00 0.00 0.00 54 1012.4
20260905232823 77 313 2.0 3.0 0.00 0.00 0.00 54 1012.4
20260905232719 77 302 2.0 3.0 0.00 0.00 0.00 53 1012.5
20260905232630 77 0.0 0.0 0.00 0.00 0.00 53 1012.6
20260905232526 77 0.0 0.0 0.00 0.00 0.00 54 1012.5
20260905232441 78 352 1.0 1.0 0.00 0.00 0.00 54 1012.4
20260905232317 78 352 1.0 1.0 0.00 0.00 0.00 54 1012.5
20260905232229 78 338 2.0 3.0 0.00 0.00 0.00 53 1012.4
20260905232124 78 316 1.0 2.0 0.00 0.00 0.00 53 1012.4
20260905232020 78 331 3.0 4.0 0.00 0.00 0.00 53 1012.3
20260905231915 78 315 2.0 2.0 0.00 0.00 0.00 53 1012.4
20260905231827 78 309 1.0 2.0 0.00 0.00 0.00 52 1012.4
20260905231722 78 311 1.0 2.0 0.00 0.00 0.00 52 1012.4
20260905231618 78 313 1.0 3.0 0.00 0.00 0.00 52 1012.4
20260905231530 78 318 2.0 3.0 0.00 0.00 0.00 51 1012.3
20260905231425 78 0.0 0.0 0.00 0.00 0.00 51 1012.3
20260905231321 78 0.0 0.0 0.00 0.00 0.00 51 1012.4
20260905231236 78 0.0 0.0 0.00 0.00 0.00 52 1012.5
20260905231128 79 298 0.0 1.0 0.00 0.00 0.00 51 1012.5
20260905231024 79 299 0.0 1.0 0.00 0.00 0.00 51 1012.3
20260905230919 79 298 0.0 1.0 0.00 0.00 0.00 51 1012.4
20260905230851 79 299 1.0 1.0 0.00 0.00 0.00 51 1012.5
20260905230726 79 311 2.0 3.0 0.00 0.00 0.00 51 1012.5
20260905230622 79 330 1.0 4.0 0.00 0.00 0.00 50 1012.5
20260905230517 79 315 1.0 2.0 0.00 0.00 0.00 50 1012.6
20260905230449 79 315 2.0 3.0 0.00 0.00 0.00 50 1012.6
20260905230344 79 311 3.0 4.0 0.00 0.00 0.00 50 1012.6
20260905230220 80 298 2.0 3.0 0.00 0.00 0.00 50 1012.4
20260905230156 80 285 0.0 1.0 0.00 0.00 0.00 50 1012.5
20260905230027 80 284 1.0 2.0 0.00 0.00 0.00 50 1012.6
20260905225943 80 311 1.0 2.0 0.00 0.00 0.00 49 1012.7
20260905225858 80 323 1.0 2.0 0.00 0.00 0.00 49 1012.6
20260905225730 80 336 1.0 3.0 0.00 0.00 0.00 49 1012.6
20260905225625 80 338 1.0 2.0 0.00 0.00 0.00 49 1012.6
20260905225521 80 331 2.0 4.0 0.00 0.00 0.00 49 1012.5
20260905225416 81 310 2.0 2.0 0.00 0.00 0.00 49 1012.4
20260905225347 81 305 2.0 3.0 0.00 0.00 0.00 49 1012.6
20260905225222 81 311 1.0 3.0 0.00 0.00 0.00 48 1012.4
20260905225118 81 339 1.0 1.0 0.00 0.00 0.00 48 1012.5
20260905225029 81 336 1.0 3.0 0.00 0.00 0.00 48 1012.5
20260905224925 81 339 0.0 1.0 0.00 0.00 0.00 48 1012.5
20260905224821 81 340 2.0 3.0 0.00 0.00 0.00 47 1012.4
20260905224716 82 315 1.0 2.0 0.00 0.00 0.00 47 1012.4
20260905224628 82 333 1.0 1.0 0.00 0.00 0.00 47 1012.5
20260905224523 82 328 1.0 2.0 0.00 0.00 0.00 47 1012.3
20260905224419 82 324 1.0 2.0 0.00 0.00 0.00 46 1012.4
20260905224330 82 324 2.0 4.0 0.00 0.00 0.00 47 1012.6
20260905224226 82 343 1.0 3.0 0.00 0.00 0.00 46 1012.3
20260905224142 83 314 0.0 2.0 0.00 0.00 0.00 47 1012.4
20260905224037 83 304 0.0 1.0 0.00 0.00 0.00 46 1012.2
20260905223929 83 304 0.0 2.0 0.00 0.00 0.00 45 1012.3
20260905223825 83 305 0.0 1.0 0.00 0.00 0.00 46 1012.3
20260905223720 83 306 1.0 2.0 0.00 0.00 0.00 46 1012.3
20260905223636 83 311 2.0 2.0 0.00 0.00 0.00 45 1012.0
20260905223527 83 282 2.0 3.0 0.00 0.00 0.00 45 1012.4
20260905223422 84 308 3.0 3.0 0.00 0.00 0.00 45 1012.2
20260905223318 84 295 2.0 2.0 0.00 0.00 0.00 46 1012.1
20260905223229 84 330 1.0 3.0 0.00 0.00 0.00 47 1012.2
20260905223125 84 360 1.0 1.0 0.00 0.00 0.00 47 1012.3
20260905223020 84 353 1.0 2.0 0.00 0.00 0.00 47 1012.2
20260905222916 83 0.0 0.0 0.00 0.00 0.00 49 1012.3
20260905222828 83 0.0 0.0 0.00 0.00 0.00 50 1012.2
20260905222743 83 339 0.0 1.0 0.00 0.00 0.00 50 1012.3
20260905222619 83 0.0 0.0 0.00 0.00 0.00 49 1012.4
20260905222530 83 338 1.0 2.0 0.00 0.00 0.00 49 1012.3
20260905222426 82 258 1.0 1.0 0.00 0.00 0.00 48 1012.4
20260905222321 82 257 1.0 1.0 0.00 0.00 0.00 48 1012.5
20260905222217 82 239 0.0 2.0 0.00 0.00 0.00 48 1012.4
20260905222129 82 292 1.0 2.0 0.00 0.00 0.00 48 1012.5
20260905222024 82 315 1.0 3.0 0.00 0.00 0.00 47 1012.6
20260905221920 82 301 4.0 4.0 0.00 0.00 0.00 47 1012.4
20260905221851 82 293 3.0 3.0 0.00 0.00 0.00 48 1012.5
20260905221726 81 268 1.0 2.0 0.00 0.00 0.00 49 1012.4
20260905221622 81 309 1.0 1.0 0.00 0.00 0.00 50 1012.4
20260905221517 81 310 1.0 2.0 0.00 0.00 0.00 50 1012.2
20260905221429 81 240 1.0 2.0 0.00 0.00 0.00 49 1012.2
20260905221324 81 240 1.0 3.0 0.00 0.00 0.00 49 1012.0
20260905221240 81 341 1.0 2.0 0.00 0.00 0.00 49 1012.2
20260905221136 81 351 1.0 3.0 0.00 0.00 0.00 48 1012.1
20260905221027 81 297 2.0 4.0 0.00 0.00 0.00 48 1012.3
20260905220922 81 288 3.0 4.0 0.00 0.00 0.00 48 1012.3
20260905220816 81 249 3.0 4.0 0.00 0.00 0.00 48 1012.1
20260905220727 81 303 1.0 2.0 0.00 0.00 0.00 48 1012.3
20260905220622 81 292 3.0 7.0 0.00 0.00 0.00 48 1012.2
20260905220518 81 249 3.0 4.0 0.00 0.00 0.00 49 1012.2
20260905220449 81 258 2.0 4.0 0.00 0.00 0.00 49 1012.1
20260905220345 80 280 2.0 2.0 0.00 0.00 0.00 50 1012.2
20260905220220 80 329 0.0 1.0 0.00 0.00 0.00 49 1012.0
20260905220116 80 330 0.0 1.0 0.00 0.00 0.00 49 1012.0
20260905220048 80 0.0 0.0 0.00 0.00 0.00 49 1012.1
20260905215923 80 330 0.0 1.0 0.00 0.00 0.00 49 1012.1
20260905215819 80 313 3.0 3.0 0.00 0.00 0.00 49 1012.0
20260905215731 80 305 0.0 2.0 0.00 0.00 0.00 49 1012.0
20260905215626 81 305 1.0 3.0 0.00 0.00 0.00 49 1012.0
20260905215521 81 303 2.0 3.0 0.00 0.00 0.00 48 1012.1
20260905215417 81 306 1.0 1.0 0.00 0.00 0.00 48 1011.9
20260905215329 81 301 1.0 2.0 0.00 0.00 0.00 48 1012.2
20260905215224 81 298 3.0 6.0 0.00 0.00 0.00 47 1012.0
20260905215120 81 308 3.0 6.0 0.00 0.00 0.00 49 1012.1
20260905215031 81 316 2.0 4.0 0.00 0.00 0.00 49 1012.0
20260905214926 81 0.0 0.0 0.00 0.00 0.00 49 1011.9
20260905214821 81 0.0 0.0 0.00 0.00 0.00 49 1012.0
20260905214716 81 330 0.0 1.0 0.00 0.00 0.00 49 1012.0
20260905214628 81 329 0.0 1.0 0.00 0.00 0.00 48 1012.1